                ,  0.290,  0.386,  0.483,  0.580,  0.676,  0.773,  0.869,  0.966,  1.063,  1.159,  1.256,  1.352,  1.449,  1.545,  1.642,  1.739,  1.835,  1.932,  2.028,  2.125,  2.222,  2.318,  2.415,  2.511,  2.608,  2.705,  2.801,  2.898,  2.994,  3.091,  3.188,  3.284,  3.381,  3.477,  3.574,  3.671,  3.767,  3.864,  3.960,  4.057,  4.153,  4.250,  4.347,  4.443,  4.540,  4.636,  4.733,  4.830,  4.926,  5.023,  5.119,  5.216,  5.313,  5.409,  5.506,  5.602,  5.699,  5.796
1999/09/01 00:00,  999.0,   -1.1,  999.0,  999.0,    0.8,    0.8,  999.0,   -1.6,  999.0,   -2.6,   -3.6,   -2.9,   -2.9,   -2.4,   -1.6,   -1.5,  999.0,    0.6,    1.0,    1.6,    1.2,  999.0,    2.5,    1.9,    1.6,    1.0,  999.0,  999.0,  999.0,  999.0,  999.0,  999.0,  999.0,  999.0,  999.0,  999.0,  999.0,  999.0,  999.0,   37.1,   37.8,   39.0,   40.1,  999.0,   42.1,   42.6,   41.4,   41.7,   42.0,  999.0,   42.8,  999.0,  999.0,  999.0,   41.6,   42.1,   42.3,   41.3
1999/09/01 00:10,  999.0,    0.7,    1.0,    0.8,    0.7,    0.3,  999.0,   -1.4,   -1.9,   -2.0,   -3.4,   -3.4,   -2.7,   -1.8,   -1.1,  999.0,    0.2,    0.2,    1.2,    1.6,    1.7,    1.7,    2.1,    2.5,    1.9,   -0.0,  999.0,  999.0,  999.0,  999.0,  999.0,  999.0,  999.0,  999.0,  999.0,  999.0,  999.0,  999.0,   34.6,   33.2,   37.5,   38.8,   39.4,   39.8,   42.4,   40.0,   41.7,   41.6,   42.2,   41.8,   42.4,   42.0,  999.0,   42.4,   41.6,   41.7,   41.9,   41.7
1999/09/01 00:20,  999.0,    0.7,    1.2,    0.6,    0.6,  999.0,   -1.6,   -1.8,   -2.1,   -2.5,   -3.8,   -3.9,   -3.3,   -2.7,   -2.6,   -2.2,   -1.1,   -0.1,   -0.3,    0.2,    0.9,    1.3,    1.8,    1.8,    1.6,    0.4,  999.0,   -4.3,  999.0,  999.0,  999.0,  999.0,  999.0,  999.0,  999.0,  999.0,  999.0,  999.0,   36.7,   38.1,   39.4,   40.4,  999.0,  999.0,  999.0,  999.0,  999.0,   41.8,  999.0,   41.8,   42.6,   41.5,   41.5,   41.7,  999.0,  999.0,   42.2,   42.1
1999/09/01 00:30,  999.0,    0.8,    0.9,    0.8,    0.8,    0.5,   -2.6,   -1.4,   -2.0,   -2.3,   -3.9,   -4.1,   -3.2,   -2.0,   -1.8,   -1.2,   -0.6,    0.3,    1.0,    0.4,    0.6,    1.2,    3.1,    3.2,    1.5,    0.3,   -1.5,  999.0,  999.0,  999.0,  999.0,  999.0,  999.0,  999.0,  999.0,  999.0,  999.0,  999.0,  999.0,  999.0,  999.0,  999.0,  999.0,  999.0,  999.0,  999.0,  999.0,  999.0,  999.0,  999.0,  999.0,  999.0,  999.0,  999.0,  999.0,  999.0,  999.0,  999.0
1999/09/01 00:40,  999.0,    2.4,    1.8,    0.2,    0.1,    0.1,  999.0,   -1.6,   -2.0,   -2.5,   -3.5,   -3.9,   -3.1,   -1.9,   -2.0,   -0.3,   -0.7,    0.2,    0.1,    0.5,    0.9,    1.4,    2.6,    2.5,   -0.0,   -1.6,   -2.9,   -3.7,  999.0,  999.0,  999.0,  999.0,  999.0,  999.0,  999.0,  999.0,  999.0,  999.0,  999.0,  999.0,  999.0,  999.0,  999.0,  999.0,  999.0,  999.0,  999.0,  999.0,  999.0,  999.0,  999.0,  999.0,  999.0,  999.0,  999.0,  999.0,  999.0,  999.0
1999/09/01 00:50,  999.0,    1.0,    0.3,   -0.2,   -0.4,   -0.4,   -1.6,   -1.2,   -1.7,   -2.2,   -3.3,   -3.7,   -2.5,   -1.7,   -1.3,   -0.3,    1.6,    0.2,    0.8,    1.0,    0.9,    1.5,    2.1,    1.5,    0.6,   -0.7,   -2.3,  999.0,  999.0,  999.0,  999.0,  999.0,  999.0,  999.0,  999.0,  999.0,  999.0,  999.0,  999.0,  999.0,  999.0,  999.0,  999.0,  999.0,  999.0,  999.0,  999.0,  999.0,  999.0,  999.0,  999.0,  999.0,  999.0,  999.0,  999.0,  999.0,  999.0,  999.0
1999/09/01 01:00,  999.0,    0.3,    0.7,    0.7,    0.9,    0.6,   -0.4,   -1.6,   -2.0,   -2.6,   -3.9,   -4.0,   -3.4,   -2.6,   -2.1,  999.0,   -1.3,    1.1,    1.7,    2.0,    1.6,    2.3,    2.8,    2.0,    0.7,    0.4,   -0.1,  999.0,  999.0,  999.0,  999.0,  999.0,  999.0,  999.0,  999.0,  999.0,  999.0,  999.0,  999.0,  999.0,  999.0,  999.0,  999.0,  999.0,  999.0,  999.0,  999.0,  999.0,  999.0,  999.0,  999.0,  999.0,  999.0,  999.0,  999.0,  999.0,  999.0,  999.0
1999/09/01 01:10,  999.0,    0.2,   -0.3,   -0.2,    0.1,   -0.3,    1.3,   -1.1,   -1.9,   -2.4,   -3.6,   -4.5,   -3.8,   -2.3,   -2.1,   -1.0,   -0.1,    1.2,    1.7,    2.1,    2.8,    3.6,    3.2,    4.4,    0.3,   -1.6,   -3.2,  999.0,  999.0,  999.0,  999.0,  999.0,  999.0,  999.0,  999.0,  999.0,  999.0,  999.0,  999.0,  999.0,  999.0,  999.0,  999.0,  999.0,  999.0,  999.0,  999.0,  999.0,  999.0,  999.0,   41.0,   42.1,  999.0,   42.0,   42.5,  999.0,  999.0,   42.4
1999/09/01 01:20,  999.0,    1.2,    1.0,    0.9,    1.1,    0.1,    0.1,   -0.5,   -0.9,   -2.0,   -2.3,   -3.6,   -3.4,   -2.5,   -1.7,   -1.4,    0.5,   -0.3,    1.8,    2.4,    2.8,    2.7,    3.2,    1.4,    0.5,   -1.5,   -3.1,  999.0,  999.0,  999.0,  999.0,  999.0,  999.0,  999.0,  999.0,  999.0,  999.0,  999.0,  999.0,  999.0,  999.0,  999.0,  999.0,   41.7,   42.4,   42.2,   41.9,   41.3,   42.3,   41.5,   41.6,   42.3,   41.9,   41.4,   41.4,  999.0,   42.3,   41.4
1999/09/01 01:30,  999.0,    0.2,   -0.3,   -0.5,   -0.7,   -0.4,   -0.5,   -1.0,   -2.0,   -2.1,   -3.0,   -5.1,   -2.8,   -2.2,   -1.5,   -1.1,   -0.7,    0.1,    2.2,    2.3,    2.4,    2.5,    2.6,    3.3,    2.4,    1.4,    2.3,  999.0,  999.0,  999.0,  999.0,  999.0,  999.0,  999.0,  999.0,  999.0,  999.0,  999.0,  999.0,  999.0,  999.0,  999.0,   41.9,   41.9,   41.8,   41.8,   41.6,   41.7,   41.5,   41.9,   42.2,   41.8,  999.0,   41.7,   41.4,   42.2,  999.0,   42.0
1999/09/01 01:40,  999.0,    1.2,    0.0,   -0.2,    0.7,   -0.2,   -0.1,   -0.9,   -1.6,   -2.3,   -2.3,   -3.1,   -3.8,   -3.4,   -1.9,   -1.6,   -1.9,    0.2,    0.8,    1.2,    1.7,    2.5,    2.7,    2.9,    1.7,    1.0,  999.0,  999.0,  999.0,  999.0,  999.0,  999.0,  999.0,  999.0,  999.0,  999.0,  999.0,  999.0,  999.0,  999.0,  999.0,   41.2,   41.8,   41.7,   41.6,   41.7,   41.3,   41.6,   41.7,  999.0,   41.6,   41.9,   42.0,   41.1,  999.0,   42.2,   41.8,   42.0
1999/09/01 01:50,  999.0,    0.8,   -0.0,   -0.8,    0.8,    0.3,  999.0,   -1.9,   -1.1,   -0.9,   -0.3,  999.0,  999.0,  999.0,   -0.7,    0.1,    0.6,    0.2,    1.5,    1.6,    2.1,    2.7,    3.5,    3.4,    1.1,   -0.3,  999.0,  999.0,  999.0,  999.0,  999.0,  999.0,  999.0,  999.0,  999.0,  999.0,  999.0,  999.0,   41.6,  999.0,  999.0,  999.0,   41.7,  999.0,  999.0,  999.0,   41.7,   41.9,  999.0,   41.9,   42.4,   41.9,   41.8,   41.3,   41.4,  999.0,   41.0,  999.0
1999/09/01 02:00,  999.0,  999.0,   -0.1,   -0.1,   -0.5,   -1.0,   -1.8,   -1.6,  999.0,   -1.6,   -1.7,   -2.4,   -3.3,   -3.0,   -2.3,   -0.8,   -0.2,    0.5,    2.0,    3.1,    3.0,    2.3,    1.7,    2.3,    0.9,   -0.1,   -1.0,  999.0,  999.0,  999.0,  999.0,  999.0,  999.0,   33.3,  999.0,   37.2,   39.2,   41.5,   41.6,   42.3,   41.2,   41.5,   41.6,   42.0,   42.0,   42.2,   41.6,   42.0,   41.8,   41.4,   41.8,   41.9,   42.0,   41.7,   41.8,   41.6,   41.8,   41.5
1999/09/01 02:10,  999.0,   -0.4,   -0.1,   -0.2,   -0.0,   -1.2,   -1.1,   -1.1,   -1.4,   -2.1,   -2.8,   -3.1,   -3.3,   -3.5,   -0.5,    1.0,    1.1,    2.0,    2.4,    2.0,    2.7,    1.9,    2.2,    1.3,   -0.4,    0.4,  999.0,  999.0,  999.0,  999.0,  999.0,  999.0,  999.0,   34.4,   39.3,   40.0,   41.6,   37.3,   25.3,   42.2,   27.9,   26.1,   30.6,   37.3,   42.2,   38.6,   42.2,   42.3,   42.2,   41.2,   42.1,   41.2,   36.2,   34.6,   41.5,   28.0,   22.3,   28.0
1999/09/01 02:20,  999.0,  999.0,    0.3,    0.0,   -0.2,   -0.4,   -0.6,   -0.6,   -1.2,   -1.9,   -2.3,   -2.7,   -3.0,   -3.0,   -0.4,   -0.4,    0.3,    0.8,    1.9,    2.5,    2.4,    2.2,    2.2,    1.8,    0.8,    0.4,  999.0,  999.0,  999.0,  999.0,  999.0,  999.0,   34.5,   39.2,   41.4,  999.0,   40.5,   41.9,   41.0,   42.0,   42.1,   42.5,   42.3,   41.8,   41.6,   41.6,   42.0,   41.6,   41.4,   41.4,   41.3,   41.5,   41.7,   41.1,  999.0,   42.1,   42.0,  999.0
1999/09/01 02:30,  999.0,  999.0,  999.0,   -0.1,   -0.9,   -1.1,   -0.2,   -0.6,   -1.4,   -2.0,   -2.4,   -3.4,   -3.6,   -2.8,   -0.8,   -0.0,    1.2,    1.6,    2.5,    3.2,    3.6,    2.9,    2.4,    2.4,  999.0,  999.0,  999.0,  999.0,  999.0,  999.0,  999.0,  999.0,   36.3,  999.0,   40.1,   42.2,   41.2,   41.8,   41.8,   42.0,   42.0,   41.4,   42.3,   42.3,   42.4,   41.5,   42.2,   42.5,   41.8,   42.3,   42.3,   42.4,   42.1,   42.1,   42.0,   41.8,   42.1,   42.5
1999/09/01 02:40,  -21.6,  999.0,  -14.4,  -11.1,   -8.5,   -5.3,   -2.1,   -1.1,   -1.2,   -2.0,   -2.4,   -2.4,   -2.8,   -3.1,   -0.9,    0.1,    0.1,    1.3,    2.1,    2.4,    2.3,    2.3,    2.3,    1.7,   -0.6,  999.0,  999.0,  999.0,  999.0,  999.0,  999.0,  999.0,   36.8,   41.3,   36.8,   38.7,   42.2,   39.2,   41.8,   41.7,  999.0,   41.8,   41.7,   41.3,   41.1,   41.4,   41.9,   41.8,   41.5,   41.3,   41.4,   41.7,   41.6,   42.3,   41.9,   41.4,   41.7,   42.4
1999/09/01 02:50,  -22.1,  -17.6,  -16.0,  -12.1,  -10.4,   -8.5,   -6.3,   -4.7,   -3.0,   -3.0,   -2.9,   -2.9,   -2.7,   -4.2,   -0.5,    0.5,    1.2,    2.2,    2.4,    3.3,    3.0,    2.5,    3.5,    4.2,    5.9,  999.0,  999.0,  999.0,  999.0,  999.0,  999.0,   35.5,   40.9,   41.8,   39.7,   41.1,   41.6,   42.1,   42.0,   42.1,   42.7,   42.0,   42.4,   42.2,   41.6,   42.1,   41.9,   41.6,   42.1,   41.7,   41.8,   42.0,   41.7,   42.1,   41.6,   41.8,   42.1,   42.3
1999/09/01 03:00,  -20.0,  -17.9,  -14.4,  -12.2,  -10.0,   -7.5,   -5.0,   -2.7,   -0.9,   -2.3,   -2.3,   -2.7,   -2.9,  999.0,   -1.1,    1.0,    1.7,    1.8,    2.0,    2.4,    2.8,    3.6,    3.0,    2.6,   -0.3,  999.0,  999.0,  999.0,  999.0,  999.0,  999.0,  999.0,  999.0,   36.9,  999.0,   41.6,   41.6,  999.0,   42.0,   41.7,   41.8,   41.9,   41.7,   41.5,   42.0,   42.5,   41.6,   41.7,  999.0,   42.0,   41.8,   42.2,   42.5,   42.0,  999.0,   42.1,   41.6,   42.3
1999/09/01 03:10,  -23.6,  -17.5,  -14.8,  -11.5,   -8.6,   -5.3,   -3.5,   -2.0,   -1.7,   -1.7,   -2.1,   -2.7,   -3.1,   -3.6,  999.0,    1.2,    1.5,    1.9,    2.3,    2.2,    2.8,    1.9,    1.9,    1.5,   -0.2,  999.0,  999.0,  999.0,  999.0,  999.0,  999.0,  999.0,  999.0,  999.0,   39.0,   41.3,   42.1,  999.0,   41.8,  999.0,   42.0,   42.6,   41.7,   42.2,   42.1,   41.5,   42.0,   42.4,   42.1,   41.9,   41.7,  999.0,   42.3,   41.9,   41.9,   42.2,   41.9,   41.8
1999/09/01 03:20,  -19.6,  -15.4,  -13.0,  -10.0,   -7.1,   -4.0,   -2.4,   -1.8,   -1.9,   -2.3,   -2.9,   -3.7,   -4.1,   -2.1,   -0.7,    0.7,    0.9,    1.6,    2.5,    2.9,    1.8,    2.7,    2.5,    2.1,    0.1,  999.0,  999.0,  999.0,  999.0,  999.0,  999.0,  999.0,   39.0,   41.4,   41.5,   43.1,   41.8,   42.3,   42.2,   42.1,   41.5,   42.0,   41.7,   42.2,   42.0,   41.7,   41.7,   41.9,   41.9,   41.8,   41.7,   42.0,   41.7,   41.6,   41.9,   41.7,  999.0,   41.8
1999/09/01 03:30,  -20.4,  -18.0,  -12.6,   -9.3,   -6.5,   -2.8,   -2.2,   -1.8,   -1.6,   -1.8,   -2.1,   -2.7,   -2.8,   -2.0,   -0.2,   -0.1,    0.8,    1.6,    2.4,    2.5,    4.5,    4.3,    4.8,    4.8,  999.0,  999.0,  999.0,  999.0,  999.0,  999.0,  999.0,  999.0,  999.0,  999.0,  999.0,  999.0,   41.0,   40.6,   41.7,   42.2,   42.2,   41.6,   41.1,   41.7,   42.0,   42.1,   42.1,   42.2,   41.6,   42.1,   41.7,   42.2,   42.1,   42.8,   42.3,   42.8,   42.6,   42.0
1999/09/01 03:40,  -22.3,  -18.8,  -15.4,  -12.1,   -9.2,   -6.1,   -3.0,   -2.1,   -2.1,   -2.3,   -3.1,   -3.3,   -3.4,   -3.4,    0.1,    0.9,    1.4,    1.3,    1.6,    1.4,    1.3,    2.7,    2.6,    2.0,    1.4,  999.0,  999.0,  999.0,  999.0,  999.0,  999.0,  999.0,  999.0,  999.0,  999.0,   42.3,   42.0,   42.1,   42.2,   42.1,   41.8,   42.0,   41.3,   41.9,   42.0,   41.7,   42.3,   41.7,  999.0,   42.1,  999.0,  999.0,   42.4,  999.0,  999.0,   42.3,   41.9,   42.1
1999/09/01 03:50,  -20.2,  999.0,  -15.8,  -12.0,   -9.0,   -6.1,   -4.4,   -2.6,   -1.9,   -2.0,   -2.4,   -2.4,   -3.4,   -2.9,    0.8,    1.2,    1.6,    2.1,    2.9,  999.0,    4.2,    4.8,    7.1,    7.6,    7.7,  999.0,  999.0,  999.0,  999.0,  999.0,  999.0,  999.0,  999.0,  999.0,  999.0,  999.0,  999.0,  999.0,  999.0,  999.0,   42.2,   42.0,   41.9,   41.6,  999.0,   41.7,   41.6,   41.9,   41.8,   41.6,   41.7,   41.9,   41.8,   41.2,   42.2,   41.8,   40.8,   41.6
1999/09/01 04:00,  -18.9,  -16.0,  -13.6,  -12.1,  -10.4,   -7.3,   -3.0,   -2.3,   -2.2,   -2.1,   -2.8,   -3.6,   -4.7,   -2.9,    0.1,    0.7,    1.1,    1.9,    1.2,  999.0,  999.0,    3.8,    5.0,    1.3,    8.1,  999.0,  999.0,  999.0,  999.0,  999.0,  999.0,  999.0,  999.0,  999.0,  999.0,  999.0,  999.0,   41.3,   41.7,   42.3,   41.8,  999.0,   41.9,   42.1,   41.3,   42.4,   41.8,   41.8,   41.6,   41.2,   41.9,   41.6,   41.4,   41.4,  999.0,  999.0,   41.5,   41.7
1999/09/01 04:10,  -20.5,  -18.2,  -15.1,  -12.3,   -9.3,   -8.2,   -5.7,   -4.0,   -2.9,   -3.7,   -3.9,   -4.4,   -4.6,   -1.8,   -0.8,    0.2,    0.7,    1.5,    2.0,  999.0,  999.0,    1.1,    1.7,    1.2,   -0.6,  999.0,  999.0,  999.0,  999.0,  999.0,  999.0,   29.7,   30.1,   28.1,   32.0,   30.5,   31.1,   32.2,   32.8,   33.5,   32.8,  999.0,   39.8,   35.0,   41.0,   37.8,   39.5,   40.1,   38.1,   40.1,   40.5,   41.2,   41.4,   41.5,   41.6,   41.6,   41.4,   41.8
1999/09/01 04:20,  -18.5,  -13.5,  -12.9,   -9.3,   -6.8,   -4.3,   -3.2,   -1.6,   -1.5,   -2.1,   -2.6,   -4.1,   -4.0,   -2.6,   -1.0,   -0.1,   -0.2,    0.0,  999.0,  999.0,  999.0,    1.0,    1.6,    1.2,    0.8,  999.0,  999.0,  999.0,  999.0,  999.0,  999.0,   29.6,  999.0,   31.5,  999.0,   32.3,   33.9,   34.2,   35.8,   37.2,   37.6,   38.5,   39.4,   40.7,   40.3,  999.0,   42.0,   41.7,   41.6,   42.5,   42.7,   42.1,   42.4,   42.5,   42.1,   42.3,   42.6,   42.0
1999/09/01 04:30,  -18.9,  -15.2,  -12.8,  -10.1,   -6.8,   -2.9,   -1.3,   -1.1,   -1.2,   -2.0,   -3.1,   -3.8,  999.0,   -1.8,   -0.5,   -0.1,   -0.0,    0.2,    0.6,  999.0,  999.0,  999.0,    1.4,    2.1,    1.5,  999.0,  999.0,  999.0,  999.0,  999.0,  999.0,  999.0,   31.2,   32.3,   34.5,   34.9,  999.0,   37.6,   38.7,   39.5,   41.2,   41.2,   41.3,   42.0,   41.8,   42.0,   41.5,   41.6,   41.6,  999.0,   41.9,   42.4,   41.8,   42.6,   41.8,   41.8,   41.9,   41.3
1999/09/01 04:40,  -20.8,  999.0,  -11.6,   -9.5,   -6.2,   -3.3,   -2.4,   -1.6,   -1.4,   -1.8,   -2.3,   -2.2,   -2.1,   -0.8,   -0.3,    0.1,    0.1,    0.8,  999.0,  999.0,  999.0,  999.0,    1.7,    2.3,  999.0,  999.0,  999.0,  999.0,  999.0,  999.0,  999.0,  999.0,   31.7,   32.9,   34.1,   35.3,   35.7,   36.1,   37.6,   38.7,   39.8,   41.0,  999.0,   41.9,   41.4,   41.3,   41.9,  999.0,  999.0,   41.5,   41.4,   41.5,   41.8,   41.6,   41.4,   41.6,   42.2,   42.5
1999/09/01 04:50,  999.0,  -17.1,  -11.4,   -9.2,   -6.0,   -6.0,   -4.3,   -2.0,   -1.9,   -1.9,   -2.7,   -3.6,   -3.1,   -3.2,   -1.3,   -0.7,   -0.5,   -0.3,    0.1,  999.0,    0.7,    0.9,    2.2,    2.2,    0.2,  999.0,  999.0,  999.0,  999.0,  999.0,  999.0,  999.0,  999.0,  999.0,  999.0,  999.0,  999.0,   41.7,  999.0,  999.0,   42.2,   42.4,   42.5,   42.4,   42.1,   41.8,   42.4,   42.4,   42.7,   42.6,   42.3,  999.0,   42.4,   42.3,   42.4,   42.5,   43.0,   42.2
1999/09/01 05:00,  -17.5,  -13.5,  -12.8,   -6.8,   -3.8,   -2.8,   -4.3,   -2.5,   -2.0,   -2.1,   -3.0,   -3.5,   -3.6,   -2.6,   -0.9,   -0.7,    0.0,    0.2,  999.0,  999.0,    4.7,    1.4,    4.8,    5.8,    5.9,  999.0,  999.0,  999.0,  999.0,  999.0,  999.0,  999.0,  999.0,  999.0,  999.0,  999.0,  999.0,   40.0,   41.0,   41.7,   42.1,   41.8,   42.0,   41.5,   41.7,   41.7,   41.4,   41.7,   41.8,   42.3,  999.0,   41.8,   41.6,   42.1,   42.2,   41.8,   41.7,  999.0
1999/09/01 05:10,  -18.0,  -13.3,   -7.8,   -2.9,   -1.3,   -2.5,   -2.7,   -2.7,   -2.0,   -2.1,   -2.4,   -3.2,   -3.1,   -2.0,   -0.7,    0.0,   -0.0,  999.0,  999.0,  999.0,    0.2,  999.0,    6.8,    7.4,   12.1,  999.0,  999.0,  999.0,  999.0,  999.0,  999.0,  999.0,  999.0,  999.0,  999.0,  999.0,  999.0,   41.6,   41.4,   41.3,   41.5,   41.4,   41.0,   41.3,   41.6,   42.0,   42.0,  999.0,   41.6,   41.0,   41.3,   41.3,   41.6,   41.8,   41.8,   42.3,   41.5,   41.2
1999/09/01 05:20,  -21.2,  -18.3,  -14.9,  -12.5,   -9.5,   -7.7,   -5.6,   -3.6,   -2.0,   -1.9,   -2.7,   -3.2,   -3.2,   -1.4,   -0.0,    1.3,    1.3,  999.0,  999.0,  999.0,  999.0,    6.6,    7.7,    7.8,    8.2,  999.0,  999.0,  999.0,  999.0,  999.0,  999.0,  999.0,  999.0,  999.0,  999.0,  999.0,  999.0,   37.7,   42.0,  999.0,   40.4,   41.1,   41.9,   41.7,   41.9,   41.4,   41.6,   41.5,   42.0,   41.6,   41.7,   42.2,   41.7,   41.4,   41.6,   41.2,   41.5,   42.3
1999/09/01 05:30,  -20.3,  -17.2,  -13.5,   -9.6,   -6.5,   -7.7,   -4.0,   -2.7,   -2.4,   -1.3,   -2.5,   -3.2,   -3.1,   -0.8,    0.0,   -0.2,    0.7,    1.9,  999.0,  999.0,  999.0,    7.6,    9.5,   10.7,    9.5,    9.5,  999.0,  999.0,  999.0,  999.0,  999.0,  999.0,  999.0,  999.0,  999.0,  999.0,  999.0,  999.0,  999.0,   41.3,   41.5,   41.4,   41.4,   41.1,   41.8,   41.8,   41.6,   41.1,   41.9,   40.8,   41.5,   41.5,   41.7,   41.4,   41.4,   41.8,   41.6,   41.8
1999/09/01 05:40,  -21.0,  -15.0,   -9.6,   -4.9,   -4.0,   -2.8,   -2.1,   -2.0,   -1.8,   -1.9,   -2.2,   -3.8,   -3.6,   -1.5,   -1.0,   -0.0,    0.5,    2.5,  999.0,    5.0,  999.0,  999.0,   10.6,   11.7,   11.6,   10.5,  999.0,  999.0,  999.0,  999.0,  999.0,  999.0,  999.0,  999.0,  999.0,  999.0,  999.0,  999.0,   41.6,   42.5,   41.4,   41.8,   42.1,   41.4,   42.0,   41.5,   42.2,   41.7,   41.7,   42.0,   41.7,   41.8,   41.9,   41.8,   41.6,   41.2,   41.8,   42.0
1999/09/01 05:50,  -21.4,  -17.6,  -13.9,   -9.5,   -6.9,   -6.7,   -3.4,   -2.5,   -1.6,   -1.3,   -2.1,   -3.2,   -3.3,   -0.7,    0.5,    1.6,    2.9,  999.0,  999.0,  999.0,  999.0,  999.0,   10.3,   11.9,   11.7,   11.9,  999.0,  999.0,  999.0,  999.0,  999.0,  999.0,  999.0,  999.0,  999.0,  999.0,  999.0,   42.1,   41.4,   42.1,   41.9,  999.0,   41.9,   41.9,   42.3,   41.6,   41.6,   41.8,   42.1,   41.4,   42.1,   42.4,  999.0,   42.6,   41.7,   41.8,   41.9,   41.8
1999/09/01 06:00,  -21.6,  -18.9,  -15.7,  -12.4,  -11.1,   -8.8,   -7.6,   -3.2,   -2.7,   -1.6,   -1.6,   -2.9,   -3.5,   -2.1,   -0.8,    0.9,    1.3,  999.0,  999.0,    5.4,    6.1,    8.6,   10.8,   11.5,   11.9,   11.5,  999.0,  999.0,  999.0,  999.0,  999.0,  999.0,  999.0,  999.0,  999.0,  999.0,  999.0,   42.0,  999.0,   41.3,   41.8,   41.9,   42.4,   42.4,   42.4,   42.3,   41.9,   41.8,   42.1,   42.1,   42.1,   42.4,  999.0,   42.2,  999.0,   41.8,  999.0,   42.2
1999/09/01 06:10,  -21.5,  -19.0,  -16.1,   -7.0,   -7.5,   -7.1,   -5.7,   -4.4,   -3.4,   -1.7,   -2.0,   -3.2,   -3.3,   -2.1,   -1.5,   -0.4,    0.3,    2.7,  999.0,  999.0,    6.0,    6.9,    7.6,   11.0,   11.8,  999.0,  999.0,  999.0,  999.0,  999.0,  999.0,  999.0,  999.0,  999.0,  999.0,  999.0,  999.0,   40.7,   41.4,   41.7,   41.7,   41.6,   42.2,   42.2,   41.3,  999.0,   41.3,   41.3,   41.5,   41.7,   41.7,   42.1,  999.0,   42.2,   40.5,   41.2,  999.0,   41.6
1999/09/01 06:20,  -22.7,  -20.5,  -17.3,   -5.6,  -13.6,   -5.2,   -5.5,   -4.3,   -3.6,   -1.6,   -2.2,   -3.4,   -3.0,   -1.9,   -1.2,   -1.4,   -0.8,  999.0,  999.0,    5.2,    6.1,    3.8,    5.7,    6.3,    1.3,  999.0,  999.0,  999.0,  999.0,  999.0,  999.0,  999.0,  999.0,  999.0,  999.0,  999.0,   42.1,   38.4,   42.6,   42.6,  999.0,   41.6,   41.1,   39.1,   41.7,   36.6,  999.0,   42.2,  999.0,   42.6,   42.5,   41.5,   42.7,   42.3,   42.9,   42.3,  999.0,   42.2
1999/09/01 06:30,  999.0,  999.0,   -1.1,  999.0,   -2.3,   -2.3,   -3.2,   -2.6,   -1.9,   -1.4,   -2.5,   -3.8,   -3.0,   -2.2,   -1.9,   -2.1,  999.0,  999.0,  999.0,  999.0,  999.0,    1.3,    0.7,    0.6,  999.0,  999.0,  999.0,  999.0,  999.0,  999.0,  999.0,  999.0,  999.0,  999.0,  999.0,  999.0,  999.0,  999.0,  999.0,  999.0,  999.0,  999.0,  999.0,  999.0,  999.0,   33.7,   34.0,  999.0,   35.1,  999.0,  999.0,  999.0,  999.0,  999.0,  999.0,  999.0,  999.0,  999.0
1999/09/01 06:40,  999.0,  999.0,  999.0,   -0.3,   -1.3,   -2.4,   -3.1,   -2.2,   -1.4,   -0.8,   -1.5,   -2.8,   -2.1,   -1.2,   -2.8,   -1.8,  999.0,  999.0,  999.0,   -1.0,   -0.1,    1.3,    1.0,    0.1,  999.0,  999.0,  999.0,  999.0,  999.0,  999.0,  999.0,  999.0,  999.0,  999.0,  999.0,  999.0,  999.0,  999.0,  999.0,  999.0,  999.0,  999.0,   31.5,  999.0,   33.6,  999.0,   34.0,  999.0,  999.0,  999.0,  999.0,  999.0,  999.0,  999.0,  999.0,  999.0,  999.0,   39.0
1999/09/01 06:50,  999.0,   -1.3,   -1.3,   -1.2,   -2.2,   -2.4,   -2.6,   -2.1,   -1.2,   -0.8,   -1.4,   -2.7,   -2.7,   -1.6,   -1.9,   -1.8,   -2.2,   -0.6,  999.0,   -0.5,  999.0,    1.9,    0.9,    0.1,  999.0,  999.0,  999.0,  999.0,  999.0,  999.0,  999.0,  999.0,  999.0,  999.0,  999.0,  999.0,  999.0,  999.0,  999.0,  999.0,  999.0,  999.0,  999.0,  999.0,  999.0,  999.0,  999.0,  999.0,  999.0,  999.0,  999.0,  999.0,  999.0,  999.0,  999.0,  999.0,  999.0,  999.0
1999/09/01 07:00,  999.0,   -1.2,   -0.9,   -1.1,   -2.2,   -3.3,   -3.6,   -2.2,   -1.2,   -0.9,   -1.3,   -2.2,   -2.5,   -2.3,   -1.2,   -2.0,   -2.2,  999.0,  999.0,  999.0,  999.0,    1.0,    0.6,   -0.3,  999.0,  999.0,  999.0,  999.0,  999.0,  999.0,  999.0,  999.0,  999.0,  999.0,  999.0,  999.0,  999.0,  999.0,  999.0,  999.0,  999.0,  999.0,  999.0,  999.0,  999.0,  999.0,  999.0,  999.0,  999.0,  999.0,  999.0,  999.0,  999.0,  999.0,  999.0,  999.0,  999.0,  999.0
1999/09/01 07:10,  999.0,   -0.9,   -1.2,   -2.1,   -3.0,   -3.4,   -3.4,   -2.5,   -1.9,   -1.3,   -2.3,   -2.8,   -1.5,   -1.1,   -1.8,   -2.1,   -2.1,  999.0,  999.0,  999.0,    0.1,  999.0,    0.5,    0.2,  999.0,  999.0,  999.0,  999.0,  999.0,  999.0,  999.0,  999.0,  999.0,  999.0,  999.0,  999.0,  999.0,  999.0,  999.0,  999.0,  999.0,  999.0,  999.0,  999.0,  999.0,  999.0,  999.0,  999.0,  999.0,  999.0,  999.0,  999.0,  999.0,  999.0,  999.0,  999.0,  999.0,  999.0
1999/09/01 07:20,  999.0,   -1.0,   -0.9,   -1.4,   -3.1,   -3.0,   -2.7,   -2.3,   -1.9,   -1.2,   -2.2,   -2.9,   -2.6,   -0.5,  999.0,   -2.2,   -2.1,  999.0,  999.0,  999.0,  999.0,    0.8,   -0.2,  999.0,  999.0,  999.0,  999.0,  999.0,  999.0,  999.0,  999.0,  999.0,  999.0,  999.0,  999.0,  999.0,  999.0,  999.0,  999.0,  999.0,  999.0,  999.0,  999.0,  999.0,  999.0,  999.0,  999.0,  999.0,  999.0,  999.0,  999.0,  999.0,  999.0,  999.0,  999.0,  999.0,  999.0,  999.0
1999/09/01 07:30,  999.0,   -1.2,   -1.2,   -2.7,   -3.4,   -3.6,   -2.8,   -2.5,   -1.3,   -1.4,   -2.3,   -2.7,   -2.2,   -1.5,   -2.2,   -2.8,  999.0,  999.0,  999.0,  999.0,    0.7,    0.4,   -0.0,   -0.8,   -2.0,  999.0,  999.0,  999.0,  999.0,  999.0,  999.0,  999.0,  999.0,  999.0,  999.0,  999.0,  999.0,  999.0,  999.0,  999.0,  999.0,  999.0,  999.0,  999.0,  999.0,  999.0,  999.0,  999.0,  999.0,  999.0,  999.0,  999.0,  999.0,  999.0,  999.0,  999.0,  999.0,  999.0
1999/09/01 07:40,  999.0,   -0.8,   -1.7,   -2.6,   -3.3,   -3.7,   -3.0,   -2.7,   -2.2,   -2.0,   -2.8,   -3.0,   -1.7,   -2.0,   -2.4,  999.0,  999.0,  999.0,  999.0,  999.0,    0.8,    0.6,  999.0,   -0.3,  999.0,  999.0,  999.0,  999.0,  999.0,  999.0,  999.0,  999.0,  999.0,  999.0,  999.0,  999.0,  999.0,  999.0,  999.0,  999.0,  999.0,  999.0,  999.0,  999.0,  999.0,  999.0,  999.0,  999.0,  999.0,  999.0,  999.0,  999.0,  999.0,  999.0,  999.0,  999.0,  999.0,  999.0
1999/09/01 07:50,  999.0,   -0.9,   -1.2,   -2.3,   -3.2,   -3.6,   -3.5,   -3.1,   -2.7,   -1.4,   -2.9,   -3.6,   -2.6,   -1.7,  999.0,   -2.1,  999.0,   -0.9,   -0.6,   -0.0,    0.3,    0.8,    0.4,  999.0,   -1.1,  999.0,  999.0,  999.0,  999.0,  999.0,  999.0,  999.0,  999.0,  999.0,  999.0,  999.0,  999.0,  999.0,  999.0,  999.0,  999.0,  999.0,  999.0,  999.0,  999.0,  999.0,  999.0,  999.0,  999.0,  999.0,  999.0,  999.0,  999.0,  999.0,  999.0,  999.0,  999.0,  999.0
1999/09/01 08:00,  999.0,   -1.3,   -1.2,   -2.2,   -3.1,   -3.7,   -3.2,   -2.9,   -2.1,   -1.7,   -2.7,   -2.9,   -2.6,   -1.1,  999.0,  999.0,  999.0,   -0.4,   -0.2,   -0.3,    0.8,    1.1,    0.8,  999.0,   -0.5,   -1.6,  999.0,  999.0,  999.0,  999.0,  999.0,  999.0,  999.0,  999.0,  999.0,  999.0,  999.0,  999.0,  999.0,  999.0,  999.0,  999.0,  999.0,  999.0,  999.0,  999.0,  999.0,  999.0,  999.0,  999.0,  999.0,  999.0,  999.0,  999.0,  999.0,  999.0,  999.0,  999.0
1999/09/01 08:10,  999.0,   -0.9,   -0.9,   -2.6,   -3.5,   -3.9,   -3.2,   -2.9,   -1.6,   -1.6,   -2.8,   -2.7,   -1.8,   -0.6,  999.0,    0.5,  999.0,   -1.0,   -0.4,    0.4,    1.0,    0.9,    1.1,    0.0,   -0.5,  999.0,  999.0,  999.0,  999.0,  999.0,  999.0,  999.0,  999.0,  999.0,  999.0,  999.0,  999.0,  999.0,  999.0,  999.0,  999.0,  999.0,  999.0,  999.0,  999.0,  999.0,  999.0,  999.0,  999.0,  999.0,  999.0,  999.0,  999.0,  999.0,  999.0,  999.0,  999.0,  999.0
1999/09/01 08:20,  999.0,   -0.4,   -1.6,   -2.8,   -3.4,   -4.0,   -3.5,   -3.1,   -1.8,   -2.2,   -3.3,   -3.2,   -3.2,   -1.2,  999.0,  999.0,  999.0,  999.0,   -1.6,    0.7,    0.7,    1.0,    0.9,    0.4,   -0.4,   -0.9,  999.0,  999.0,  999.0,  999.0,  999.0,  999.0,  999.0,  999.0,  999.0,  999.0,  999.0,  999.0,  999.0,  999.0,  999.0,  999.0,  999.0,  999.0,  999.0,  999.0,  999.0,  999.0,  999.0,  999.0,  999.0,  999.0,  999.0,  999.0,  999.0,  999.0,  999.0,  999.0
1999/09/01 08:30,   -1.3,   -1.6,   -1.9,   -3.1,   -3.7,   -3.8,   -3.7,   -3.4,   -2.5,   -2.4,   -3.1,   -2.9,   -2.4,   -1.2,   -1.0,  999.0,  999.0,   -1.4,   -0.7,   -0.9,    0.8,    0.8,    1.2,    1.1,   -0.2,    0.2,   -0.0,  999.0,  999.0,  999.0,  999.0,  999.0,  999.0,  999.0,  999.0,  999.0,  999.0,  999.0,  999.0,  999.0,   -0.6,  999.0,  999.0,  999.0,  999.0,  999.0,  999.0,  999.0,  999.0,  999.0,  999.0,  999.0,  999.0,  999.0,  999.0,  999.0,  999.0,  999.0
1999/09/01 08:40,  999.0,   -1.7,   -2.9,   -3.2,   -4.1,   -4.0,   -3.5,   -3.4,   -2.4,   -1.6,   -2.6,   -3.0,   -3.0,   -2.6,   -0.7,  999.0,  999.0,   -2.1,   -1.3,   -0.8,    0.2,    1.0,    0.8,  999.0,   -0.5,  999.0,  999.0,  999.0,  999.0,  999.0,  999.0,  999.0,  999.0,  999.0,  999.0,  999.0,  999.0,  999.0,  999.0,  999.0,  999.0,  999.0,  999.0,  999.0,  999.0,  999.0,  999.0,  999.0,  999.0,  999.0,  999.0,  999.0,  999.0,  999.0,  999.0,  999.0,  999.0,  999.0
1999/09/01 08:50,  999.0,   -1.2,   -1.4,   -2.4,   -3.0,   -3.8,   -3.7,   -3.5,   -3.0,   -1.8,   -2.4,   -3.0,   -2.2,   -1.8,   -0.9,   -0.8,  999.0,  999.0,  999.0,   -0.5,    0.5,    0.8,    0.8,    1.2,   -0.0,  999.0,  999.0,  999.0,  999.0,  999.0,  999.0,  999.0,  999.0,  999.0,  999.0,  999.0,  999.0,  999.0,  999.0,  999.0,  999.0,  999.0,  999.0,  999.0,  999.0,  999.0,  999.0,  999.0,  999.0,  999.0,  999.0,  999.0,  999.0,  999.0,  999.0,  999.0,  999.0,  999.0
1999/09/01 09:00,  999.0,    0.0,   -2.4,   -3.1,   -3.4,   -3.8,   -4.0,   -3.9,   -2.2,   -1.9,   -3.2,   -3.2,   -2.5,   -2.2,   -1.6,   -0.3,  999.0,  999.0,  999.0,   -1.9,    1.2,    1.0,    1.4,    0.9,   -0.1,   -1.1,  999.0,   -0.5,  999.0,  999.0,  999.0,  999.0,  999.0,  999.0,  999.0,  999.0,  999.0,  999.0,  999.0,  999.0,  999.0,  999.0,  999.0,  999.0,  999.0,  999.0,  999.0,  999.0,  999.0,  999.0,  999.0,  999.0,  999.0,  999.0,  999.0,  999.0,  999.0,  999.0
1999/09/01 09:10,  999.0,   -1.4,   -2.2,   -3.0,   -3.6,   -3.8,   -3.7,   -3.7,   -3.3,   -2.4,   -2.6,   -3.6,   -2.1,   -2.4,  999.0,  999.0,  999.0,  999.0,   -0.7,   -0.1,    0.9,    1.2,    1.2,    0.7,  999.0,  999.0,  999.0,  999.0,  999.0,  999.0,  999.0,  999.0,  999.0,  999.0,  999.0,  999.0,  999.0,  999.0,  999.0,  999.0,  999.0,  999.0,  999.0,  999.0,  999.0,  999.0,  999.0,  999.0,  999.0,  999.0,  999.0,  999.0,  999.0,  999.0,  999.0,  999.0,  999.0,  999.0
1999/09/01 09:20,  999.0,   -2.3,   -3.8,   -2.9,   -1.4,   -3.6,   -3.6,   -4.1,   -3.7,   -2.7,   -2.8,   -3.3,   -2.3,   -2.4,  999.0,  999.0,  999.0,  999.0,  999.0,    0.1,    0.7,    1.4,    1.2,    1.5,  999.0,  999.0,  999.0,  999.0,  999.0,  999.0,  999.0,  999.0,  999.0,  999.0,  999.0,  999.0,  999.0,  999.0,  999.0,  999.0,  999.0,   -1.5,  999.0,  999.0,  999.0,  999.0,  999.0,  999.0,  999.0,  999.0,  999.0,  999.0,  999.0,  999.0,  999.0,  999.0,  999.0,  999.0
1999/09/01 09:30,  999.0,   -2.0,   -2.6,   -1.8,   -2.8,   -3.6,   -3.7,   -4.3,   -3.6,   -2.9,   -3.5,   -3.6,   -2.6,   -2.4,   -1.6,  999.0,   -1.1,   -0.4,   -1.4,    1.0,    0.7,    0.7,    1.1,    1.4,    1.1,  999.0,  999.0,  999.0,  999.0,  999.0,    1.7,  999.0,  999.0,    1.9,  999.0,  999.0,  999.0,  999.0,  999.0,  999.0,  999.0,  999.0,  999.0,  999.0,  999.0,  999.0,  999.0,  999.0,  999.0,  999.0,  999.0,  999.0,  999.0,  999.0,  999.0,  999.0,  999.0,  999.0
1999/09/01 09:40,  999.0,   -0.5,   -0.7,   -1.5,   -1.6,   -1.7,   -1.8,   -2.4,   -2.7,   -2.6,   -2.9,   -3.2,   -2.4,   -2.1,   -1.9,  999.0,  999.0,  999.0,  999.0,    0.5,    1.0,    1.7,    1.7,    1.9,    1.9,  999.0,  999.0,  999.0,  999.0,  999.0,  999.0,  999.0,  999.0,  999.0,  999.0,  999.0,  999.0,  999.0,  999.0,  999.0,  999.0,  999.0,    0.5,  999.0,  999.0,    0.6,    0.6,  999.0,    0.7,  999.0,  999.0,  999.0,  999.0,  999.0,  999.0,  999.0,  999.0,  999.0
1999/09/01 09:50,  999.0,   -2.8,   -4.9,   -5.6,   -4.6,   -4.1,   -3.7,   -3.1,   -3.1,   -2.2,   -2.6,   -2.9,   -2.2,   -2.2,   -2.5,  999.0,   -1.8,   -0.5,   -0.1,    0.3,    0.9,    1.0,    1.3,    1.3,    1.0,  999.0,  999.0,  999.0,  999.0,  999.0,  999.0,  999.0,  999.0,  999.0,  999.0,  999.0,  999.0,  999.0,  999.0,  999.0,  999.0,  999.0,  999.0,  999.0,  999.0,  999.0,  999.0,  999.0,  999.0,  999.0,  999.0,  999.0,  999.0,  999.0,    0.2,  999.0,  999.0,  999.0
1999/09/01 10:00,  999.0,   -3.2,   -4.2,   -3.6,   -3.3,   -3.9,   -3.7,   -3.9,   -3.8,   -4.2,   -4.1,   -3.4,   -2.3,   -2.2,   -1.5,  999.0,   -2.4,  999.0,   -1.3,  999.0,    0.9,    1.3,    1.5,    1.4,  999.0,  999.0,  999.0,  999.0,  999.0,  999.0,  999.0,  999.0,  999.0,  999.0,  999.0,   -0.7,   -0.6,  999.0,  999.0,  999.0,  999.0,    0.6,  999.0,  999.0,  999.0,  999.0,  999.0,  999.0,    0.7,  999.0,    0.6,  999.0,  999.0,  999.0,  999.0,    0.4,  999.0,  999.0
1999/09/01 10:10,  999.0,   -3.0,   -2.4,   -2.3,   -3.2,   -3.7,   -3.4,   -4.4,   -4.8,   -4.6,   -3.8,   -2.6,   -1.4,   -1.6,   -1.6,   -1.6,   -1.5,   -1.3,  999.0,    1.1,    0.7,    0.9,    1.4,    1.6,  999.0,  999.0,  999.0,  999.0,  999.0,  999.0,  999.0,  999.0,  999.0,  999.0,  999.0,  999.0,  999.0,  999.0,  999.0,  999.0,  999.0,  999.0,  999.0,  999.0,  999.0,  999.0,  999.0,  999.0,  999.0,  999.0,  999.0,  999.0,  999.0,  999.0,  999.0,  999.0,  999.0,  999.0
1999/09/01 10:20,  999.0,   -1.9,   -2.4,   -2.2,   -2.1,   -3.3,   -3.7,   -3.3,   -4.0,   -3.7,   -4.4,   -2.7,   -1.7,   -1.3,   -1.5,   -1.6,   -0.0,   -0.4,  999.0,    1.2,    1.6,    2.2,    1.7,    1.2,  999.0,  999.0,  999.0,  999.0,  999.0,  999.0,  999.0,  999.0,  999.0,  999.0,  999.0,  999.0,  999.0,  999.0,  999.0,  999.0,  999.0,  999.0,  999.0,  999.0,  999.0,  999.0,  999.0,  999.0,  999.0,  999.0,  999.0,  999.0,  999.0,  999.0,  999.0,  999.0,  999.0,  999.0
1999/09/01 10:30,  999.0,   -3.3,   -3.7,   -4.5,   -3.3,   -2.8,   -2.0,   -1.8,   -2.6,   -3.0,   -2.9,   -2.7,   -1.9,   -1.5,   -2.4,   -1.9,   -1.4,   -1.4,   -1.0,    0.6,    1.6,    1.9,    1.8,    2.1,  999.0,  999.0,  999.0,  999.0,  999.0,  999.0,  999.0,  999.0,  999.0,  999.0,  999.0,    0.1,  999.0,  999.0,  999.0,  999.0,  999.0,  999.0,    0.8,    0.7,  999.0,    0.9,    0.6,    0.8,  999.0,  999.0,  999.0,  999.0,  999.0,  999.0,  999.0,    1.0,  999.0,  999.0
1999/09/01 10:40,  999.0,   -3.0,   -2.2,   -2.1,   -2.2,   -1.5,   -1.6,   -1.9,   -2.8,   -2.0,   -1.8,   -2.5,   -2.2,   -1.6,   -2.2,   -1.5,   -1.3,   -2.2,    0.2,    0.4,    1.6,    1.5,    1.8,    1.6,  999.0,  999.0,  999.0,  999.0,  999.0,    1.2,    2.7,  999.0,  999.0,  999.0,  999.0,  999.0,  999.0,  999.0,  999.0,  999.0,  999.0,  999.0,  999.0,  999.0,  999.0,  999.0,    2.3,  999.0,  999.0,  999.0,  999.0,  999.0,  999.0,  999.0,  999.0,  999.0,  999.0,  999.0
1999/09/01 10:50,  999.0,   -5.4,   -3.2,   -1.7,   -2.4,   -2.8,   -3.0,   -3.1,   -3.1,   -1.9,   -1.7,   -1.3,   -1.1,   -1.8,   -2.0,   -2.2,  999.0,  999.0,    0.4,    0.6,    1.5,    1.8,    1.6,  999.0,  999.0,  999.0,  999.0,  999.0,  999.0,  999.0,  999.0,  999.0,  999.0,  999.0,  999.0,  999.0,  999.0,  999.0,  999.0,  999.0,  999.0,  999.0,  999.0,  999.0,  999.0,  999.0,  999.0,  999.0,  999.0,  999.0,  999.0,  999.0,  999.0,  999.0,  999.0,  999.0,  999.0,  999.0
1999/09/01 11:00,  999.0,   -3.7,   -3.4,   -4.0,   -3.5,   -3.1,   -2.8,   -2.8,   -2.2,   -2.2,   -2.1,   -2.2,   -1.9,   -1.5,   -2.1,   -2.5,   -2.0,   -2.5,   -0.0,    0.8,    1.4,    1.3,    0.9,    0.6,  999.0,  999.0,  999.0,  999.0,  999.0,  999.0,  999.0,  999.0,  999.0,  999.0,  999.0,  999.0,  999.0,    0.9,  999.0,  999.0,  999.0,  999.0,  999.0,  999.0,  999.0,  999.0,  999.0,  999.0,  999.0,  999.0,  999.0,  999.0,    2.0,  999.0,  999.0,    2.2,  999.0,    2.3
1999/09/01 11:10,  999.0,   -0.7,   -1.4,   -3.3,   -2.0,   -0.6,   -1.7,   -3.0,   -3.6,   -3.9,   -2.2,   -2.2,   -2.3,   -2.1,   -3.0,   -1.7,   -1.1,   -0.2,    1.5,    1.6,    1.8,    1.6,    1.5,    1.0,  999.0,  999.0,  999.0,  999.0,  999.0,  999.0,  999.0,  999.0,  999.0,  999.0,  999.0,  999.0,  999.0,  999.0,  999.0,  999.0,  999.0,  999.0,  999.0,  999.0,  999.0,  999.0,  999.0,    2.3,  999.0,  999.0,  999.0,  999.0,  999.0,  999.0,  999.0,  999.0,  999.0,  999.0
1999/09/01 11:20,  999.0,    2.8,    1.4,   -1.4,   -2.1,   -1.6,   -0.7,   -1.6,   -3.5,   -3.0,   -3.7,   -4.3,   -4.2,   -2.6,   -1.3,   -1.0,   -1.1,   -1.5,   -0.3,   -0.3,    1.0,    0.6,    0.7,    0.8,  999.0,  999.0,  999.0,  999.0,  999.0,  999.0,  999.0,  999.0,  999.0,  999.0,  999.0,  999.0,  999.0,  999.0,  999.0,  999.0,  999.0,  999.0,  999.0,  999.0,  999.0,    1.1,  999.0,  999.0,  999.0,  999.0,  999.0,  999.0,  999.0,  999.0,  999.0,  999.0,  999.0,  999.0
1999/09/01 11:30,  999.0,   -1.3,   -0.7,   -0.3,   -2.5,   -2.5,   -2.8,   -2.4,   -2.7,   -2.0,   -1.5,   -2.0,   -2.9,   -1.6,   -0.7,   -1.5,   -2.0,   -2.4,   -0.1,    0.5,    1.0,    1.0,    0.8,  999.0,  999.0,  999.0,  999.0,  999.0,  999.0,  999.0,  999.0,  999.0,  999.0,  999.0,  999.0,  999.0,  999.0,  999.0,  999.0,  999.0,  999.0,  999.0,  999.0,  999.0,  999.0,  999.0,  999.0,  999.0,  999.0,  999.0,  999.0,  999.0,  999.0,  999.0,  999.0,  999.0,  999.0,  999.0
1999/09/01 11:40,  999.0,   -3.2,   -4.3,   -4.9,   -4.2,   -3.5,   -2.9,   -0.6,   -0.7,   -0.3,   -1.4,   -2.7,   -2.8,   -1.3,   -1.1,   -2.4,   -2.1,   -1.2,   -0.1,    1.0,    1.4,    1.7,    0.5,    0.9,    1.0,  999.0,  999.0,  999.0,  999.0,  999.0,  999.0,  999.0,  999.0,   -0.0,  999.0,  999.0,  999.0,  999.0,  999.0,  999.0,  999.0,  999.0,  999.0,  999.0,    1.3,    1.3,  999.0,    1.3,    1.3,  999.0,    1.3,  999.0,  999.0,  999.0,  999.0,    1.3,  999.0,  999.0
1999/09/01 11:50,  999.0,    1.2,    0.7,    0.3,    0.8,   -1.3,   -1.1,   -1.7,   -3.8,   -3.3,   -2.8,   -2.2,   -2.3,   -1.8,   -0.7,   -1.4,   -1.2,   -1.2,    0.0,    1.2,    1.5,    1.2,    1.2,  999.0,  999.0,  999.0,  999.0,  999.0,  999.0,  999.0,  999.0,  999.0,  999.0,  999.0,  999.0,  999.0,  999.0,  999.0,  999.0,  999.0,  999.0,  999.0,  999.0,  999.0,  999.0,  999.0,  999.0,  999.0,  999.0,  999.0,  999.0,  999.0,  999.0,  999.0,  999.0,  999.0,  999.0,  999.0
1999/09/01 12:00,  999.0,   -1.8,   -1.2,   -0.1,   -2.3,   -2.7,   -0.8,   -2.1,   -3.1,   -3.1,   -3.2,  999.0,   -2.9,   -2.2,  999.0,   -2.5,   -1.6,   -1.5,  999.0,    2.2,    1.6,    1.2,    1.0,  999.0,  999.0,  999.0,  999.0,  999.0,  999.0,  999.0,  999.0,  999.0,  999.0,  999.0,  999.0,  999.0,  999.0,  999.0,  999.0,  999.0,  999.0,  999.0,  999.0,  999.0,  999.0,  999.0,  999.0,  999.0,  999.0,  999.0,  999.0,  999.0,  999.0,  999.0,  999.0,  999.0,  999.0,  999.0
1999/09/01 12:10,  999.0,   -1.9,   -1.0,   -1.4,   -0.2,   -2.2,   -3.7,   -1.4,   -1.1,   -1.3,   -0.2,   -0.4,   -1.3,   -0.7,   -1.3,   -2.1,   -2.2,   -1.1,  999.0,    1.1,    1.6,    3.0,    0.5,   -1.7,  999.0,  999.0,  999.0,  999.0,  999.0,  999.0,  999.0,  999.0,  999.0,  999.0,  999.0,  999.0,  999.0,  999.0,  999.0,  999.0,  999.0,  999.0,  999.0,  999.0,  999.0,  999.0,  999.0,  999.0,  999.0,  999.0,  999.0,  999.0,  999.0,  999.0,  999.0,  999.0,  999.0,  999.0
1999/09/01 12:20,  999.0,   -2.1,   -2.0,   -1.2,   -0.4,   -0.3,   -1.0,   -2.8,   -1.6,   -1.3,   -1.7,   -2.4,   -2.2,   -2.3,  999.0,   -2.0,   -1.3,   -1.3,    1.1,    1.4,    1.6,    1.1,    1.8,   -0.2,  999.0,  999.0,  999.0,  999.0,  999.0,  999.0,  999.0,  999.0,  999.0,  999.0,  999.0,  999.0,  999.0,  999.0,  999.0,  999.0,  999.0,  999.0,  999.0,  999.0,  999.0,  999.0,  999.0,  999.0,  999.0,  999.0,  999.0,  999.0,  999.0,  999.0,  999.0,  999.0,  999.0,  999.0
1999/09/01 12:30,  999.0,   -1.5,   -2.2,   -0.7,   -0.5,   -0.7,   -2.7,   -2.9,   -3.6,   -3.5,   -3.2,   -3.1,   -3.5,   -2.2,  999.0,  999.0,   -2.4,   -1.9,   -0.3,    0.2,    0.5,    0.6,    0.1,   -0.7,  999.0,  999.0,  999.0,  999.0,  999.0,  999.0,  999.0,  999.0,  999.0,  999.0,  999.0,  999.0,  999.0,  999.0,    1.8,  999.0,  999.0,  999.0,  999.0,  999.0,  999.0,  999.0,  999.0,  999.0,  999.0,  999.0,  999.0,  999.0,  999.0,  999.0,  999.0,  999.0,  999.0,  999.0
1999/09/01 12:40,  999.0,    1.1,   -0.1,   -0.1,   -0.1,   -0.7,   -0.7,   -5.2,    0.3,    0.9,   -1.8,   -1.7,   -0.2,   -1.5,   -0.4,   -2.0,  999.0,   -2.1,   -0.2,   -0.3,    0.3,    0.2,   -0.4,   -1.3,  999.0,  999.0,  999.0,  999.0,  999.0,  999.0,  999.0,  999.0,  999.0,  999.0,  999.0,  999.0,  999.0,  999.0,   -1.0,  999.0,  999.0,  999.0,  999.0,  999.0,  999.0,  999.0,  999.0,  999.0,  999.0,  999.0,  999.0,  999.0,  999.0,  999.0,  999.0,  999.0,  999.0,  999.0
1999/09/01 12:50,  999.0,    0.8,    1.4,   -2.8,   -3.5,   -2.8,   -2.2,   -1.7,    1.5,   -1.4,   -1.9,   -1.7,   -2.0,   -1.5,   -2.3,   -1.9,   -2.3,   -1.5,    0.2,    0.7,    1.0,    1.2,    1.0,    0.3,  999.0,  999.0,  999.0,  999.0,  999.0,    0.5,  999.0,  999.0,  999.0,  999.0,  999.0,  999.0,  999.0,   -0.4,  999.0,   -0.8,   -1.0,  999.0,  999.0,  999.0,  999.0,  999.0,  999.0,  999.0,   -0.3,  999.0,  999.0,  999.0,  999.0,   -1.2,  999.0,  999.0,  999.0,   -1.1
1999/09/01 13:00,  999.0,   -0.2,   -1.1,   -1.3,   -0.4,   -0.8,   -0.7,   -0.4,   -1.1,   -1.2,   -1.7,   -2.2,   -2.8,   -3.4,  999.0,   -1.7,   -2.3,   -2.1,   -1.3,    0.1,    0.8,    1.0,    0.8,   -0.8,  999.0,  999.0,  999.0,  999.0,  999.0,  999.0,  999.0,  999.0,  999.0,  999.0,   -0.7,   -0.9,   -0.9,   -0.8,  999.0,   -0.9,  999.0,   -1.1,   -1.0,  999.0,   -0.9,  999.0,  999.0,   -1.1,   -0.9,  999.0,  999.0,  999.0,  999.0,  999.0,  999.0,  999.0,  999.0,  999.0
1999/09/01 13:10,  999.0,   -3.8,   -2.7,   -3.9,   -3.4,   -0.8,   -1.5,   -0.9,    0.5,    0.9,    0.2,   -0.4,   -0.2,   -0.5,   -1.5,   -1.6,   -1.6,   -2.2,   -1.4,   -0.5,    1.2,    1.6,    1.0,    0.2,   -1.5,  999.0,  999.0,  999.0,  999.0,  999.0,  999.0,  999.0,  999.0,  999.0,  999.0,  999.0,  999.0,  999.0,  999.0,  999.0,    0.1,  999.0,  999.0,  999.0,  999.0,  999.0,  999.0,   -0.9,  999.0,  999.0,  999.0,  999.0,  999.0,    0.2,   -0.0,  999.0,  999.0,  999.0
1999/09/01 13:20,  999.0,    0.1,    0.7,    0.5,    0.6,   -0.6,   -1.2,   -1.3,   -1.1,   -1.4,   -1.7,   -2.3,   -2.1,   -2.3,   -2.4,   -1.9,   -2.0,   -2.3,   -1.6,    0.1,    0.3,    0.9,   -0.6,   -1.1,  999.0,   -2.8,  999.0,  999.0,  999.0,  999.0,  999.0,  999.0,  999.0,  999.0,  999.0,  999.0,   -1.9,  999.0,   -1.6,  999.0,  999.0,  999.0,  999.0,  999.0,  999.0,  999.0,  999.0,  999.0,    0.4,  999.0,  999.0,    0.0,    0.1,  999.0,  999.0,   -0.1,    0.6,   -0.0
1999/09/01 13:30,  999.0,    0.6,    1.1,    0.7,   -1.0,   -0.6,   -1.1,   -1.9,   -2.1,   -1.8,   -2.6,   -4.1,   -4.9,   -4.6,   -4.3,   -2.9,   -3.3,   -3.2,   -1.9,   -0.4,    0.8,    0.6,   -0.1,   -0.9,   -2.7,   -2.7,  999.0,  999.0,  999.0,  999.0,  999.0,  999.0,  999.0,  999.0,  999.0,  999.0,  999.0,  999.0,  999.0,  999.0,  999.0,  999.0,  999.0,  999.0,  999.0,  999.0,  999.0,  999.0,  999.0,  999.0,  999.0,  999.0,  999.0,   -0.5,  999.0,  999.0,   -0.4,  999.0
1999/09/01 13:40,  999.0,   -6.4,   -1.4,   -1.3,   -3.2,   -2.4,   -1.3,   -0.3,    0.3,    0.2,   -1.3,   -2.0,   -1.9,   -2.5,   -3.9,   -3.2,   -3.0,   -1.9,   -1.4,    0.6,    1.5,    2.3,    2.0,    0.7,   -0.8,   -1.4,  999.0,  999.0,  999.0,  999.0,  999.0,  999.0,  999.0,  999.0,  999.0,  999.0,  999.0,  999.0,  999.0,  999.0,  999.0,  999.0,  999.0,  999.0,  999.0,  999.0,  999.0,  999.0,  999.0,  999.0,    1.0,    1.0,  999.0,  999.0,  999.0,  999.0,  999.0,  999.0
1999/09/01 13:50,  999.0,   -1.1,    0.9,    2.4,    1.0,   -0.7,   -4.0,   -5.9,   -4.5,   -3.5,   -2.9,   -2.7,   -2.4,   -2.0,   -2.6,   -2.9,   -4.3,  999.0,   -3.0,   -1.7,   -0.1,    0.6,    0.1,   -0.3,   -1.4,  999.0,  999.0,  999.0,  999.0,  999.0,  999.0,    0.8,  999.0,  999.0,  999.0,  999.0,  999.0,  999.0,  999.0,  999.0,  999.0,  999.0,  999.0,  999.0,  999.0,  999.0,  999.0,  999.0,  999.0,  999.0,    1.2,  999.0,  999.0,  999.0,  999.0,  999.0,  999.0,  999.0
1999/09/01 14:00,  999.0,    1.9,    0.5,    1.0,    1.4,    1.2,   -0.1,    0.9,    0.8,    0.8,    0.3,    0.7,   -0.1,    0.5,    0.2,   -0.7,   -2.2,   -2.0,   -1.6,   -2.2,   -1.9,   -0.3,   -1.8,   -3.3,   -5.9,  999.0,   -8.2,  999.0,  999.0,  999.0,  999.0,  999.0,  999.0,  999.0,  999.0,  999.0,  999.0,  999.0,  999.0,  999.0,  999.0,  999.0,  999.0,  999.0,  999.0,  999.0,  999.0,  999.0,  999.0,  999.0,  999.0,  999.0,  999.0,  999.0,  999.0,  999.0,  999.0,  999.0
1999/09/01 14:10,  999.0,    0.1,    0.1,    2.3,    0.4,    3.4,    4.3,    4.2,    3.6,    4.0,    5.1,    5.4,    4.4,    3.3,    3.2,    1.9,   -1.7,   -1.1,   -2.6,   -1.3,   -0.4,   -0.7,   -1.5,   -2.3,   -2.6,   -3.1,  999.0,  999.0,  999.0,  999.0,  999.0,  999.0,  999.0,  999.0,  999.0,  999.0,  999.0,  999.0,   -0.3,  999.0,  999.0,  999.0,  999.0,  999.0,  999.0,  999.0,  999.0,  999.0,  999.0,  999.0,  999.0,  999.0,  999.0,  999.0,  999.0,  999.0,  999.0,  999.0
1999/09/01 14:20,  999.0,    1.2,    1.6,    2.1,    0.8,    1.1,    1.7,    2.7,    2.9,    3.3,    4.9,    6.1,    6.4,    4.0,    3.5,    4.2,    1.0,   -2.2,    0.0,    0.8,  999.0,   -1.7,  999.0,    7.3,  999.0,  999.0,  999.0,  999.0,  999.0,  999.0,   -3.2,   -3.5,    2.2,  999.0,  999.0,  999.0,  999.0,  999.0,  999.0,  999.0,  999.0,  999.0,  999.0,  999.0,  999.0,    1.4,  999.0,  999.0,  999.0,  999.0,  999.0,  999.0,  999.0,  999.0,  999.0,  999.0,  999.0,  999.0
1999/09/01 14:30,  999.0,   -0.2,    1.5,    0.1,   -0.1,    1.1,    1.3,    1.8,    4.8,    2.9,    3.2,    1.4,    0.8,   -1.3,   -0.6,    2.5,    4.5,    3.4,    4.9,    5.8,    3.8,    3.4,    4.4,    4.2,    6.4,  999.0,  999.0,  999.0,    4.5,  999.0,  999.0,  999.0,  999.0,  999.0,  999.0,  999.0,  999.0,  999.0,  999.0,  999.0,  999.0,  999.0,  999.0,  999.0,  999.0,  999.0,  999.0,  999.0,  999.0,  999.0,  999.0,  999.0,  999.0,  999.0,  999.0,  999.0,  999.0,  999.0
1999/09/01 14:40,  999.0,   -1.3,    0.5,   -0.1,    0.1,    2.0,    2.0,    1.5,    1.6,    1.8,    2.2,    1.4,    0.1,   -3.3,   -3.5,   -3.6,   -2.2,    0.3,    1.9,    2.9,    4.1,    1.7,   -1.1,   -2.6,   -7.2,  999.0,  999.0,  999.0,  999.0,  999.0,  999.0,  999.0,  999.0,  999.0,  999.0,  999.0,  999.0,  999.0,  999.0,  999.0,  999.0,  999.0,  999.0,  999.0,  999.0,  999.0,  999.0,  999.0,  999.0,  999.0,  999.0,  999.0,  999.0,  999.0,  999.0,  999.0,  999.0,  999.0
1999/09/01 14:50,  999.0,   -0.4,   -0.5,    0.0,    0.2,   -0.0,    1.1,    2.1,    2.1,    1.9,    1.1,    0.8,    1.2,   -1.8,   -1.5,   -0.9,    0.7,    1.4,    1.3,    1.5,   -0.0,   -1.8,   -1.0,    1.9,  999.0,  999.0,  999.0,  999.0,  999.0,  999.0,  999.0,  999.0,  999.0,  999.0,  999.0,  999.0,  999.0,  999.0,  999.0,  999.0,  999.0,  999.0,  999.0,  999.0,  999.0,  999.0,  999.0,  999.0,  999.0,  999.0,  999.0,  999.0,  999.0,  999.0,  999.0,  999.0,  999.0,  999.0
1999/09/01 15:00,  999.0,   -0.6,   -0.3,   -0.1,    0.5,    1.3,    1.3,    1.4,    1.4,    1.6,    0.2,   -0.1,    1.5,    1.2,    1.9,    2.0,    1.7,    1.5,    1.9,    1.5,    0.3,   -0.2,   -0.8,   -1.4,   -0.5,  999.0,  999.0,  999.0,  999.0,  999.0,  999.0,  999.0,  999.0,  999.0,  999.0,  999.0,  999.0,  999.0,  999.0,  999.0,  999.0,  999.0,  999.0,  999.0,  999.0,  999.0,  999.0,  999.0,  999.0,  999.0,  999.0,  999.0,  999.0,  999.0,  999.0,  999.0,  999.0,  999.0
1999/09/01 15:10,  999.0,    0.2,    0.2,    0.3,    0.4,    1.0,    1.2,    0.7,    1.0,    1.0,    0.3,   -0.7,   -1.2,   -0.4,    0.1,    0.5,   -0.2,    0.4,    0.3,    2.3,    2.5,    0.7,   -0.3,   -0.7,   -1.5,  999.0,  999.0,  999.0,  999.0,  999.0,  999.0,  999.0,  999.0,  999.0,  999.0,  999.0,  999.0,  999.0,  999.0,  999.0,  999.0,  999.0,  999.0,  999.0,  999.0,  999.0,  999.0,  999.0,  999.0,  999.0,  999.0,  999.0,  999.0,  999.0,  999.0,  999.0,  999.0,  999.0
1999/09/01 15:20,  999.0,   -0.3,    0.1,    0.2,    0.1,    0.0,    0.6,    1.1,    1.8,    1.8,    1.9,    1.9,    1.4,    0.9,    1.1,    0.9,    0.4,    0.4,    0.7,   -0.7,   -1.3,   -2.0,   -2.9,   -3.4,   -3.4,  999.0,  999.0,  999.0,  999.0,  999.0,  999.0,  999.0,  999.0,  999.0,  999.0,  999.0,  999.0,  999.0,  999.0,  999.0,  999.0,  999.0,  999.0,  999.0,  999.0,  999.0,  999.0,  999.0,  999.0,  999.0,  999.0,  999.0,  999.0,  999.0,  999.0,  999.0,  999.0,  999.0
1999/09/01 15:30,  999.0,    0.5,   -0.1,   -0.9,   -0.5,    0.1,    0.6,    1.0,    1.6,    1.7,    1.3,    1.1,    1.1,    1.3,    1.1,    0.5,    0.1,    0.6,   -0.8,   -1.0,   -1.4,   -1.8,   -3.0,   -3.1,   -2.6,   -2.5,  999.0,  999.0,  999.0,  999.0,  999.0,  999.0,  999.0,  999.0,  999.0,  999.0,  999.0,  999.0,  999.0,  999.0,  999.0,  999.0,  999.0,  999.0,  999.0,  999.0,  999.0,  999.0,  999.0,  999.0,  999.0,  999.0,  999.0,  999.0,  999.0,  999.0,  999.0,  999.0
1999/09/01 15:40,  999.0,    0.2,    0.4,    0.1,   -0.1,   -0.2,    0.3,    0.8,    0.9,    0.6,    0.3,   -0.2,    0.0,   -0.3,   -0.7,    0.1,    0.4,   -1.3,   -1.0,   -1.4,   -2.0,   -2.4,   -3.4,   -3.9,   -3.3,   -3.0,  999.0,  999.0,  999.0,  999.0,  999.0,  999.0,  999.0,  999.0,  999.0,  999.0,  999.0,  999.0,  999.0,  999.0,  999.0,  999.0,  999.0,  999.0,  999.0,  999.0,  999.0,  999.0,  999.0,  999.0,  999.0,  999.0,  999.0,  999.0,  999.0,  999.0,  999.0,  999.0
1999/09/01 15:50,  999.0,   -0.5,    0.2,   -0.5,    0.3,    0.7,    0.2,    0.6,    0.8,    0.6,    0.0,    0.0,    0.1,    0.3,   -0.3,   -1.2,   -1.7,   -0.9,   -1.4,   -2.0,   -2.4,   -2.9,   -3.7,   -4.8,   -5.3,   -5.8,  999.0,  999.0,  999.0,  999.0,  999.0,  999.0,  999.0,  999.0,  999.0,  999.0,  999.0,  999.0,  999.0,  999.0,  999.0,  999.0,  999.0,  999.0,  999.0,  999.0,  999.0,  999.0,  999.0,  999.0,  999.0,  999.0,  999.0,  999.0,  999.0,  999.0,  999.0,  999.0
1999/09/01 16:00,  999.0,   -0.2,   -0.6,   -0.1,    0.1,    0.3,    0.5,    0.4,    0.1,   -0.3,   -0.6,   -0.5,   -0.4,   -0.6,   -1.2,   -1.2,   -1.5,   -2.0,   -2.1,   -2.4,   -2.5,   -3.5,   -4.6,   -7.1,   -5.5,   -5.3,  999.0,  999.0,  999.0,  999.0,  999.0,  999.0,  999.0,  999.0,  999.0,  999.0,  999.0,  999.0,  999.0,  999.0,  999.0,  999.0,  999.0,  999.0,  999.0,  999.0,  999.0,  999.0,  999.0,  999.0,  999.0,  999.0,  999.0,  999.0,  999.0,  999.0,  999.0,  999.0
1999/09/01 16:10,  999.0,   -0.8,    0.4,    1.2,    0.5,    0.3,    0.3,   -0.4,   -1.6,   -0.5,   -0.1,   -0.3,   -0.9,   -1.2,   -1.2,   -1.6,   -1.5,   -1.8,   -2.1,   -2.3,   -2.3,   -2.8,   -3.5,   -4.1,   -4.3,   -3.4,  999.0,  999.0,  999.0,  999.0,  999.0,  999.0,  999.0,  999.0,  999.0,  999.0,  999.0,  999.0,  999.0,  999.0,  999.0,  999.0,  999.0,  999.0,  999.0,  999.0,  999.0,  999.0,  999.0,  999.0,  999.0,  999.0,  999.0,  999.0,  999.0,  999.0,  999.0,  999.0
1999/09/01 16:20,  999.0,   -0.4,   -0.2,    0.2,    0.2,    0.2,    0.5,    0.4,    0.2,    0.3,    0.3,    0.1,   -0.2,   -0.5,   -1.3,   -1.4,   -1.4,   -1.6,   -1.4,   -1.4,   -2.3,   -2.6,   -3.4,   -4.2,   -5.2,   -5.2,   -6.2,   -6.1,  999.0,  999.0,  999.0,  999.0,  999.0,  999.0,  999.0,  999.0,  999.0,  999.0,  999.0,  999.0,  999.0,  999.0,  999.0,  999.0,  999.0,  999.0,  999.0,  999.0,  999.0,  999.0,  999.0,  999.0,  999.0,  999.0,  999.0,  999.0,  999.0,  999.0
1999/09/01 16:30,  999.0,   -0.1,    0.4,    0.2,    0.3,   -0.2,    0.0,   -0.4,   -0.3,    0.3,    0.4,    0.2,   -0.6,   -1.0,   -1.6,   -1.4,   -0.9,   -0.9,   -1.8,   -2.2,   -3.0,   -3.9,   -4.7,   -5.4,   -5.6,   -6.1,   -6.4,   -7.0,  999.0,  999.0,  999.0,  999.0,  999.0,  999.0,  999.0,  999.0,  999.0,  999.0,  999.0,  999.0,  999.0,  999.0,  999.0,  999.0,  999.0,  999.0,  999.0,  999.0,  999.0,  999.0,  999.0,  999.0,  999.0,  999.0,  999.0,  999.0,  999.0,  999.0
1999/09/01 16:40,  999.0,   -0.2,   -0.1,    0.1,    0.1,    0.1,    0.1,    0.1,    0.2,   -0.5,   -0.6,   -1.0,   -1.4,   -2.0,   -1.9,   -1.8,   -1.5,   -1.1,   -0.8,   -1.1,   -1.9,   -2.2,   -2.9,   -3.7,   -4.5,   -5.3,   -6.0,   -7.2,  999.0,  999.0,  999.0,  999.0,  999.0,  999.0,  999.0,  999.0,  999.0,  999.0,  999.0,  999.0,  999.0,  999.0,  999.0,  999.0,  999.0,  999.0,  999.0,  999.0,  999.0,  999.0,  999.0,  999.0,  999.0,  999.0,  999.0,  999.0,  999.0,  999.0
1999/09/01 16:50,  999.0,    0.3,    0.2,   -0.7,   -0.2,    1.1,    0.2,    0.4,    0.3,   -0.0,   -0.5,   -0.9,   -1.6,   -1.0,   -1.1,   -0.8,   -1.4,   -1.2,   -2.1,   -2.1,   -2.2,   -3.2,   -4.0,   -4.6,   -4.8,   -5.4,   -6.3,   -8.1,  999.0,  999.0,  999.0,  999.0,  999.0,  999.0,  999.0,  999.0,  999.0,  999.0,  999.0,  999.0,  999.0,  999.0,  999.0,  999.0,  999.0,  999.0,  999.0,  999.0,  999.0,  999.0,  999.0,  999.0,  999.0,  999.0,  999.0,  999.0,  999.0,  999.0
1999/09/01 17:00,  999.0,    0.1,   -0.6,   -0.2,   -0.1,    0.1,    0.4,    0.1,   -0.3,   -0.9,   -1.2,   -1.8,   -2.1,   -1.8,   -1.1,   -0.7,   -0.8,   -0.7,   -0.9,   -1.6,   -2.2,   -3.1,   -2.8,   -4.6,   -4.3,   -5.4,   -5.9,   -6.3,   -6.2,  999.0,  999.0,  999.0,  999.0,  999.0,  999.0,  999.0,  999.0,  999.0,  999.0,  999.0,  999.0,  999.0,  999.0,  999.0,  999.0,  999.0,  999.0,  999.0,  999.0,  999.0,  999.0,  999.0,  999.0,  999.0,  999.0,  999.0,  999.0,  999.0
1999/09/01 17:10,  999.0,   -0.1,   -0.2,    0.1,    0.4,   -0.2,   -0.2,    0.1,   -0.1,   -0.2,   -0.9,   -1.6,   -1.9,   -1.5,   -0.8,   -0.3,    0.1,    0.2,   -0.2,   -0.9,   -1.5,   -1.7,   -3.8,   -4.8,   -4.0,   -5.3,   -5.5,   -6.0,   -5.4,   -5.1,  999.0,  999.0,  999.0,  999.0,  999.0,  999.0,  999.0,  999.0,  999.0,  999.0,  999.0,  999.0,  999.0,  999.0,  999.0,  999.0,  999.0,  999.0,  999.0,  999.0,  999.0,  999.0,  999.0,  999.0,  999.0,  999.0,  999.0,  999.0
1999/09/01 17:20,  999.0,   -0.4,   -0.9,   -0.4,    0.4,   -0.6,   -0.4,    0.2,    0.3,    0.2,   -0.7,   -1.0,   -0.7,   -0.5,   -0.8,   -0.7,   -1.1,   -2.1,   -1.8,   -1.3,   -1.6,   -1.8,   -3.3,   -4.1,   -3.7,   -4.4,   -4.7,   -5.2,   -5.8,   -4.9,  999.0,  999.0,  999.0,  999.0,  999.0,  999.0,  999.0,  999.0,  999.0,  999.0,  999.0,  999.0,  999.0,  999.0,  999.0,  999.0,  999.0,  999.0,  999.0,  999.0,  999.0,  999.0,  999.0,  999.0,  999.0,  999.0,  999.0,  999.0
1999/09/01 17:30,  999.0,   -0.3,   -0.9,   -0.5,   -0.1,    0.1,    1.2,    0.5,    1.0,    0.9,    1.1,    0.7,    0.4,    0.1,   -0.5,   -0.7,   -1.1,   -1.1,   -1.4,   -1.2,   -1.4,   -1.3,   -3.3,   -4.8,   -4.7,   -4.3,   -5.1,   -5.5,   -5.6,   -5.2,   -5.0,  999.0,  999.0,  999.0,  999.0,  999.0,  999.0,  999.0,  999.0,  999.0,  999.0,  999.0,  999.0,  999.0,  999.0,  999.0,  999.0,  999.0,  999.0,  999.0,  999.0,  999.0,  999.0,  999.0,  999.0,  999.0,  999.0,  999.0
1999/09/01 17:40,  999.0,    0.0,   -0.4,   -1.2,   -0.8,    1.0,    1.3,    1.5,    1.6,    1.1,    1.1,    1.2,    1.1,    0.2,   -0.1,    0.2,   -0.2,   -1.3,   -1.6,   -1.7,   -1.3,   -2.4,   -2.8,   -3.4,   -3.5,   -4.2,   -4.3,   -5.2,   -3.8,   -2.7,  999.0,  999.0,  999.0,  999.0,  999.0,  999.0,  999.0,  999.0,  999.0,  999.0,  999.0,  999.0,  999.0,  999.0,  999.0,  999.0,  999.0,  999.0,  999.0,  999.0,  999.0,  999.0,  999.0,  999.0,  999.0,  999.0,  999.0,  999.0
1999/09/01 17:50,  999.0,   -0.7,    0.5,   -0.3,   -0.2,    0.5,    1.6,    2.1,    2.4,    2.4,    2.0,    1.7,    1.5,    1.3,    0.0,    0.3,   -0.6,   -1.2,   -1.8,   -2.8,   -1.6,   -2.3,   -2.6,   -3.4,   -3.7,   -4.3,   -4.3,   -5.0,   -4.5,  999.0,  999.0,  999.0,  999.0,  999.0,  999.0,  999.0,  999.0,  999.0,  999.0,  999.0,  999.0,  999.0,  999.0,  999.0,  999.0,  999.0,  999.0,  999.0,  999.0,  999.0,  999.0,  999.0,  999.0,  999.0,  999.0,  999.0,  999.0,  999.0
1999/09/01 18:00,  999.0,    0.1,   -0.5,    0.3,   -0.4,   -0.3,    1.3,    0.8,    1.2,    1.1,    1.1,    0.8,    0.5,    0.2,  999.0,   -0.1,   -0.6,   -1.7,   -2.0,   -3.0,   -2.9,   -3.0,   -2.3,   -2.5,   -3.6,   -4.0,   -3.3,   -3.6,   -3.7,   -5.2,  999.0,  999.0,  999.0,  999.0,  999.0,  999.0,  999.0,  999.0,  999.0,  999.0,  999.0,  999.0,  999.0,  999.0,  999.0,  999.0,  999.0,  999.0,  999.0,  999.0,  999.0,  999.0,  999.0,  999.0,  999.0,  999.0,  999.0,  999.0
1999/09/01 18:10,  999.0,    0.2,    0.3,   -0.3,   -0.6,   -0.9,    0.3,    1.2,    1.6,    1.6,    0.9,    0.9,    1.2,    0.0,   -0.3,   -0.3,   -2.6,   -2.6,   -2.6,   -3.0,   -4.1,   -4.5,   -4.5,   -4.0,   -3.3,   -4.0,   -4.4,   -4.6,   -4.0,   -3.1,  999.0,  999.0,  999.0,  999.0,  999.0,   -3.5,  999.0,  999.0,  999.0,  999.0,  999.0,  999.0,  999.0,  999.0,  999.0,  999.0,  999.0,  999.0,  999.0,  999.0,  999.0,  999.0,  999.0,  999.0,  999.0,  999.0,  999.0,  999.0
1999/09/01 18:20,  999.0,   -0.3,   -0.7,   -0.8,   -1.4,   -1.4,   -0.2,    0.8,    2.1,    1.3,    1.2,    0.9,    0.5,    0.1,   -1.5,   -0.4,   -0.6,   -1.2,   -2.3,   -2.8,   -2.2,   -3.6,   -3.5,   -4.3,   -6.3,   -5.4,   -5.8,   -4.4,   -4.4,   -3.7,  999.0,  999.0,  999.0,  999.0,  999.0,  999.0,  999.0,  999.0,  999.0,  999.0,  999.0,  999.0,  999.0,  999.0,  999.0,  999.0,  999.0,   -4.5,  999.0,  999.0,  999.0,  999.0,   -3.4,  999.0,  999.0,  999.0,  999.0,  999.0
1999/09/01 18:30,  999.0,    0.0,   -0.9,   -2.4,  999.0,    0.6,    0.0,    0.3,    2.1,    2.1,    1.8,    0.9,    0.5,    0.3,    0.2,  999.0,    0.8,    0.3,   -2.2,   -2.1,   -2.9,   -3.0,   -3.3,   -4.4,   -4.6,   -4.3,   -5.0,   -4.5,   -2.5,   -2.7,   -3.8,   -3.8,  999.0,  999.0,  999.0,  999.0,  999.0,  999.0,  999.0,  999.0,  999.0,  999.0,  999.0,  999.0,  999.0,  999.0,  999.0,  999.0,  999.0,  999.0,  999.0,  999.0,  999.0,  999.0,  999.0,  999.0,  999.0,  999.0
1999/09/01 18:40,  999.0,  999.0,  999.0,  999.0,   -1.5,  999.0,   -0.2,    0.1,    1.3,    2.9,    3.9,    2.5,    2.2,    1.9,    1.2,    0.5,    0.4,   -0.4,   -0.7,   -3.8,   -2.7,   -3.5,   -4.4,   -5.0,   -5.1,   -4.9,   -5.4,   -5.2,   -4.0,   -3.8,   -3.4,   -3.0,   -2.3,  999.0,  999.0,  999.0,  999.0,  999.0,  999.0,  999.0,  999.0,  999.0,  999.0,  999.0,  999.0,  999.0,  999.0,  999.0,  999.0,  999.0,  999.0,  999.0,  999.0,  999.0,  999.0,  999.0,  999.0,  999.0
1999/09/01 18:50,  999.0,  999.0,  999.0,  999.0,  999.0,  999.0,    0.3,   -0.1,    2.5,    3.0,    2.7,    1.7,    1.0,    0.4,    0.3,   -0.4,   -1.8,   -1.0,   -2.6,   -3.9,   -4.7,   -3.3,   -3.7,   -4.3,   -3.8,   -4.2,   -3.9,   -4.1,   -3.5,   -2.6,   -1.5,  999.0,   -1.2,  999.0,  999.0,  999.0,  999.0,  999.0,  999.0,  999.0,  999.0,  999.0,  999.0,  999.0,  999.0,  999.0,  999.0,  999.0,  999.0,  999.0,  999.0,  999.0,  999.0,  999.0,  999.0,  999.0,  999.0,  999.0
1999/09/01 19:00,  999.0,  999.0,  999.0,  999.0,  999.0,  999.0,    0.7,  999.0,    0.7,    2.4,    2.3,    1.6,    1.2,   -0.2,   -1.6,   -1.2,   -2.4,   -2.2,   -1.5,   -3.9,   -5.2,   -4.2,   -4.0,   -4.5,   -4.6,   -3.9,   -4.2,   -4.1,  999.0,  999.0,  999.0,  999.0,  999.0,  999.0,  999.0,  999.0,  999.0,  999.0,  999.0,  999.0,  999.0,  999.0,  999.0,  999.0,  999.0,  999.0,  999.0,  999.0,  999.0,  999.0,  999.0,  999.0,  999.0,  999.0,  999.0,  999.0,  999.0,  999.0
1999/09/01 19:10,  999.0,  999.0,  999.0,  999.0,  999.0,  999.0,  999.0,    2.6,   -0.8,    2.1,    2.3,    0.4,    0.2,    0.1,   -1.1,   -1.3,   -1.1,   -3.8,   -0.9,   -4.6,   -2.6,   -2.3,   -3.1,   -3.9,   -4.8,   -4.7,   -3.3,   -3.6,  999.0,  999.0,  999.0,  999.0,  999.0,  999.0,  999.0,  999.0,  999.0,  999.0,  999.0,  999.0,  999.0,  999.0,  999.0,  999.0,  999.0,  999.0,  999.0,  999.0,  999.0,  999.0,  999.0,  999.0,  999.0,  999.0,  999.0,  999.0,  999.0,  999.0
1999/09/01 19:20,  999.0,  999.0,  999.0,  999.0,  999.0,  999.0,  999.0,    1.1,    1.1,    2.2,    1.5,    0.3,    0.0,   -0.0,   -1.3,   -1.0,    0.3,   -0.2,   -1.5,   -1.3,   -2.1,   -2.5,   -2.4,   -3.5,   -3.9,   -4.0,   -3.4,   -4.0,  999.0,  999.0,  999.0,  999.0,  999.0,  999.0,  999.0,  999.0,  999.0,  999.0,  999.0,  999.0,  999.0,  999.0,  999.0,  999.0,  999.0,  999.0,  999.0,  999.0,  999.0,  999.0,  999.0,  999.0,  999.0,  999.0,  999.0,  999.0,  999.0,  999.0
1999/09/01 19:30,  999.0,  999.0,  999.0,  999.0,  999.0,  999.0,   -0.4,   -1.1,    0.8,    1.9,    2.2,    2.0,    2.1,    1.6,    1.2,    0.6,    0.9,   -1.7,   -1.4,   -2.8,   -3.8,   -3.3,   -3.3,   -3.6,   -4.5,   -5.3,   -5.0,   -4.1,   -0.5,  999.0,  999.0,  999.0,  999.0,  999.0,  999.0,  999.0,  999.0,  999.0,  999.0,  999.0,  999.0,  999.0,  999.0,  999.0,  999.0,  999.0,  999.0,  999.0,  999.0,  999.0,  999.0,  999.0,  999.0,  -24.6,  999.0,  999.0,  999.0,  999.0
1999/09/01 19:40,  999.0,  999.0,  999.0,  999.0,  999.0,  999.0,    2.0,    0.1,  999.0,    0.8,    1.2,    0.4,    0.4,   -0.7,   -1.2,   -0.5,   -0.5,   -1.1,   -1.1,   -1.4,   -2.9,   -3.1,   -3.9,   -5.1,   -4.9,   -2.4,   -5.5,   -5.3,   -6.1,  999.0,  999.0,  999.0,  999.0,  999.0,  999.0,  999.0,  999.0,  999.0,  999.0,  999.0,  999.0,  999.0,  999.0,  999.0,  999.0,  999.0,  999.0,  999.0,  999.0,  999.0,  999.0,  999.0,  999.0,  999.0,  999.0,  -24.0,  -24.3,  999.0
1999/09/01 19:50,  999.0,  999.0,   -1.1,   -0.3,  999.0,    2.1,    1.4,    1.1,    0.3,    0.7,    0.0,   -0.0,   -0.4,   -0.3,   -0.7,   -1.1,   -1.7,   -1.6,   -2.0,   -3.1,   -3.6,   -4.0,   -4.8,   -5.5,   -5.9,   -6.5,   -8.5,   -9.0,   -8.6,   -8.7,   -9.7,  999.0,  999.0,  999.0,  999.0,  999.0,  999.0,  999.0,  999.0,  999.0,  999.0,  999.0,  999.0,  999.0,  -20.7,  999.0,  999.0,  999.0,  999.0,  999.0,  999.0,  999.0,  -23.6,  999.0,  999.0,  -23.8,  999.0,  999.0
1999/09/01 20:00,  999.0,  999.0,   -1.6,   -0.9,   -3.7,   -1.3,   -2.3,   -0.6,    0.7,    1.0,    0.2,   -0.1,   -1.0,   -1.0,   -0.7,   -1.2,   -1.5,   -1.2,   -0.3,   -1.5,   -3.1,   -4.5,   -3.9,   -4.8,   -4.2,   -4.7,   -2.7,   -2.5,   -4.3,   -4.7,   -6.4,  999.0,  999.0,  999.0,  999.0,  999.0,  999.0,  999.0,  999.0,  999.0,  999.0,  999.0,  999.0,  999.0,  999.0,  999.0,  999.0,  999.0,  999.0,  999.0,  999.0,  999.0,  999.0,  -24.4,  999.0,  -24.0,  999.0,  999.0
1999/09/01 20:10,  999.0,  999.0,  999.0,  999.0,   -0.0,    0.1,   -0.3,   -0.3,   -1.0,   -0.2,    0.3,   -1.0,   -1.0,   -1.6,   -2.1,   -1.4,   -1.6,   -2.0,   -2.0,   -2.5,   -2.9,   -4.0,   -3.6,   -3.4,   -3.0,   -1.8,   -1.6,  999.0,  999.0,   -6.5,  999.0,  999.0,  999.0,  999.0,  999.0,  999.0,  999.0,  999.0,  999.0,  999.0,  999.0,  999.0,  999.0,  999.0,  -23.6,  999.0,  999.0,  999.0,  999.0,  999.0,  999.0,  999.0,  999.0,  999.0,  999.0,  999.0,  999.0,  999.0
1999/09/01 20:20,  999.0,   -2.2,   -3.4,   -1.6,   -2.5,    1.5,   -0.5,   -1.1,   -0.4,   -0.2,   -0.7,   -1.4,   -1.5,   -1.0,   -3.5,   -3.7,   -3.2,   -2.4,   -2.4,   -3.2,   -3.7,   -3.2,   -2.9,   -2.5,   -3.7,   -5.0,   -5.4,   -7.8,  999.0,   -2.0,  999.0,  999.0,   -8.4,  -12.1,  999.0,  999.0,  999.0,  999.0,  999.0,  999.0,  999.0,  999.0,  999.0,  999.0,  999.0,  999.0,  999.0,  999.0,  999.0,  999.0,  999.0,  999.0,  999.0,  999.0,  999.0,  999.0,  999.0,  999.0
1999/09/01 20:30,  999.0,   -2.8,   -1.6,   -1.4,   -0.0,  999.0,   -0.4,   -1.0,   -0.7,   -0.3,   -0.2,   -0.3,   -0.6,   -0.9,   -1.0,   -1.2,   -0.7,   -1.4,   -0.8,   -1.2,   -2.6,   -3.3,   -2.5,   -2.1,   -1.8,  999.0,  999.0,  999.0,  999.0,  999.0,  999.0,  999.0,   -7.8,  999.0,  999.0,  999.0,  999.0,  999.0,  999.0,  999.0,  999.0,  999.0,  999.0,  999.0,  999.0,  999.0,  999.0,  999.0,  999.0,  999.0,  999.0,  999.0,  999.0,  999.0,  -23.6,  999.0,  -23.3,  999.0
1999/09/01 20:40,  999.0,   -1.9,   -2.8,   -2.4,   -2.1,   -0.4,   -0.2,    0.5,    1.0,    1.6,    1.2,    1.2,    0.0,   -0.5,   -1.6,   -1.5,   -1.1,   -2.9,   -2.7,   -2.9,   -3.6,   -3.7,   -2.4,   -2.6,   -3.6,   -8.9,  999.0,  999.0,  999.0,  999.0,  999.0,  999.0,  999.0,  999.0,  999.0,  999.0,  999.0,  999.0,  999.0,  999.0,  999.0,  999.0,  999.0,  999.0,  999.0,  999.0,  999.0,  999.0,  999.0,  999.0,  999.0,  999.0,  999.0,  999.0,  999.0,  999.0,  999.0,  999.0
1999/09/01 20:50,  999.0,  999.0,  999.0,  999.0,   -3.0,   -2.3,    0.8,    0.2,   -1.1,    0.8,    0.4,   -0.9,   -0.8,   -0.5,    0.4,    0.6,    0.0,   -0.9,   -1.0,   -2.6,   -4.4,   -4.9,   -3.4,   -4.8,   -4.3,   -7.4,  999.0,  999.0,  999.0,  999.0,  999.0,  999.0,  999.0,  999.0,  999.0,  999.0,  999.0,  999.0,  999.0,  999.0,  999.0,  999.0,  999.0,  999.0,  999.0,  999.0,  999.0,  999.0,  999.0,  999.0,  999.0,  999.0,  999.0,  999.0,  999.0,  999.0,  999.0,  999.0
1999/09/01 21:00,  999.0,   -1.9,   -2.6,  999.0,  999.0,   -1.4,   -0.7,   -0.8,   -0.2,    0.8,    0.4,    0.8,   -0.0,   -0.4,   -0.0,   -0.5,   -1.1,   -0.9,   -1.2,   -1.9,   -2.2,   -2.5,   -2.8,   -3.8,   -4.5,   -3.1,   -3.2,  999.0,  999.0,  999.0,  999.0,  999.0,  999.0,  999.0,  999.0,  999.0,  999.0,  999.0,  999.0,  999.0,  999.0,  999.0,  999.0,  999.0,  999.0,  999.0,  999.0,  999.0,  -22.6,  999.0,  999.0,  -25.4,  999.0,  999.0,  999.0,  999.0,  999.0,  999.0
1999/09/01 21:10,  999.0,   -1.6,   -1.7,   -2.2,   -2.4,   -2.4,   -2.4,   -0.8,    0.0,  999.0,    0.1,   -0.5,   -0.4,   -1.2,   -1.0,   -0.7,   -0.1,   -0.0,   -1.1,   -2.1,   -2.3,   -2.8,   -3.7,   -4.4,   -5.0,   -4.1,   -2.6,  999.0,  999.0,  999.0,  999.0,  999.0,  999.0,  999.0,  999.0,  999.0,  999.0,  999.0,  999.0,  999.0,  999.0,  999.0,  999.0,  999.0,  -25.1,  999.0,  999.0,  999.0,  999.0,  999.0,  999.0,  999.0,  999.0,  999.0,  999.0,  999.0,  -23.8,  999.0
1999/09/01 21:20,  999.0,   -1.1,   -1.0,   -2.0,   -2.9,   -2.2,   -1.2,   -1.0,   -0.4,   -0.5,   -0.9,    2.5,   -0.0,   -0.7,   -0.3,   -0.6,   -0.8,   -1.5,   -1.1,   -2.8,   -2.3,   -3.9,   -5.6,   -7.6,   -4.4,   -3.7,   -3.7,  999.0,  999.0,  999.0,  999.0,  999.0,  999.0,  999.0,  999.0,  999.0,  999.0,  999.0,  999.0,  999.0,  999.0,  999.0,  999.0,  999.0,  -25.9,  999.0,  999.0,  999.0,  999.0,  999.0,  999.0,  999.0,  -24.3,  999.0,  999.0,  999.0,  -24.6,  999.0
1999/09/01 21:30,  999.0,  999.0,   -1.2,   -2.6,   -2.2,   -2.4,   -0.2,   -1.0,   -0.3,   -0.1,   -0.0,    1.9,    1.1,    1.2,   -0.5,   -0.7,   -0.1,   -1.9,   -0.9,   -1.0,   -1.9,   -2.9,   -4.4,   -5.5,   -5.3,   -6.6,   -5.7,  999.0,  999.0,  999.0,  999.0,  999.0,  999.0,  999.0,  999.0,  999.0,  999.0,  999.0,  999.0,  999.0,  999.0,  999.0,  999.0,  999.0,  999.0,  999.0,  999.0,  999.0,  -23.8,  -24.1,  999.0,  -24.6,  999.0,  999.0,  999.0,  999.0,  999.0,  999.0
1999/09/01 21:40,  999.0,  999.0,   -1.3,   -1.2,   -1.1,   -1.3,   -1.1,   -1.1,   -0.6,   -0.5,   -1.1,   -0.8,   -0.1,   -1.3,   -1.1,   -1.4,   -1.7,   -0.6,    0.1,   -0.1,   -1.0,   -3.6,   -4.0,   -4.8,   -4.7,   -5.5,   -5.7,  999.0,  999.0,  999.0,  999.0,  999.0,  999.0,  999.0,  999.0,  999.0,  999.0,  999.0,  999.0,  999.0,  999.0,  999.0,  999.0,  999.0,  999.0,  999.0,  999.0,  999.0,  999.0,  -22.6,  999.0,  999.0,  -27.0,  999.0,  999.0,  999.0,  999.0,  999.0
1999/09/01 21:50,  999.0,   -0.6,   -0.4,   -0.5,   -0.7,   -1.0,   -1.0,   -0.4,    1.7,    2.0,   -0.4,   -1.0,   -0.8,   -1.5,   -1.7,   -2.5,    0.1,    0.3,    0.2,   -0.4,   -2.8,   -4.2,   -4.7,   -5.4,   -5.1,   -4.5,   -3.7,  999.0,  999.0,  999.0,  999.0,  999.0,  999.0,  999.0,  999.0,  999.0,  999.0,  999.0,  999.0,  999.0,  999.0,  999.0,  999.0,  999.0,  999.0,  999.0,  999.0,  999.0,  999.0,  999.0,  999.0,  999.0,  999.0,  999.0,  999.0,  999.0,  999.0,  999.0
1999/09/01 22:00,  999.0,  999.0,   -0.8,   -0.7,    0.0,   -1.0,   -1.0,   -0.1,    0.1,   -0.3,   -1.7,   -2.4,   -3.8,   -4.1,   -1.8,   -2.5,   -1.0,   -1.0,   -1.1,   -2.0,   -3.2,   -4.5,   -5.6,   -5.9,   -5.1,   -5.2,   -4.1,  999.0,  999.0,  999.0,  999.0,  999.0,  999.0,  999.0,  999.0,  999.0,  999.0,  999.0,  999.0,  999.0,  999.0,  999.0,  999.0,  999.0,  999.0,  999.0,  999.0,  999.0,  999.0,  999.0,  999.0,  999.0,  999.0,  999.0,  999.0,  999.0,  999.0,  999.0
1999/09/01 22:10,  999.0,  999.0,   -0.8,   -2.5,    1.3,   -0.2,   -1.1,   -0.5,   -0.0,   -0.1,   -0.9,   -1.4,   -1.9,   -0.8,   -1.2,  999.0,   -0.6,   -1.1,   -1.5,   -1.9,   -2.7,   -3.9,   -4.5,   -4.6,   -4.2,   -4.1,   -3.0,   -1.9,   -4.0,  999.0,  999.0,  999.0,   -8.0,  999.0,  999.0,  999.0,  999.0,  999.0,  999.0,  999.0,  999.0,  999.0,  999.0,  999.0,  999.0,  999.0,  999.0,  999.0,  999.0,  999.0,  999.0,  999.0,  -22.3,  999.0,  999.0,  999.0,  999.0,  999.0
1999/09/01 22:20,  999.0,   -0.6,   -0.2,   -0.6,   -1.0,   -1.0,   -0.6,   -1.2,   -0.8,   -0.5,   -0.3,   -1.0,   -1.6,   -1.9,   -2.2,   -2.6,   -1.8,   -0.7,   -0.8,   -0.4,   -0.7,   -2.5,   -3.5,   -4.3,   -4.2,   -3.2,   -3.4,   -2.2,  999.0,  999.0,  999.0,  999.0,  999.0,  -12.1,  999.0,  999.0,  999.0,  999.0,  999.0,  999.0,  999.0,  999.0,  999.0,  999.0,  999.0,  -22.4,  999.0,  999.0,  -25.7,  999.0,  999.0,  999.0,  999.0,  999.0,  999.0,  999.0,  999.0,  999.0
1999/09/01 22:30,  999.0,   -0.5,    0.2,    0.4,   -0.6,   -0.7,   -1.3,   -1.0,   -0.8,   -0.5,    0.1,    0.1,    0.2,   -0.5,   -1.2,   -2.0,   -1.7,   -0.7,    0.9,    1.0,   -1.6,   -2.7,   -3.3,   -4.3,   -5.6,   -3.0,   -3.6,   -3.4,   -3.2,  999.0,   -7.1,   -9.4,  -11.2,  999.0,  999.0,  999.0,  999.0,  999.0,  999.0,  999.0,  999.0,  999.0,  999.0,  999.0,  999.0,  999.0,  999.0,  999.0,  999.0,  999.0,  999.0,  999.0,  999.0,  999.0,  999.0,  999.0,  999.0,  999.0
1999/09/01 22:40,  999.0,   -0.6,   -0.7,   -0.6,   -1.1,   -0.3,   -0.1,   -1.8,   -1.0,   -0.8,   -0.3,   -0.8,   -1.4,   -2.3,   -2.1,   -2.9,   -2.2,   -0.6,   -0.2,    0.1,   -1.7,   -3.3,   -4.5,   -4.5,  999.0,   -3.1,   -3.3,   -1.1,   -2.1,  999.0,   -3.9,   -6.5,  999.0,  999.0,  999.0,  999.0,  999.0,  999.0,  999.0,  999.0,  999.0,  999.0,  999.0,  999.0,  999.0,  999.0,  999.0,  999.0,  999.0,  999.0,  999.0,  999.0,  999.0,  999.0,  999.0,  999.0,  999.0,  999.0
1999/09/01 22:50,  999.0,   -0.2,   -0.2,   -0.1,   -0.6,   -0.6,   -0.1,   -0.8,   -1.0,   -0.9,   -0.3,   -1.1,   -0.6,    0.3,   -1.3,   -1.8,   -1.6,   -1.1,   -0.8,   -1.6,   -3.0,   -4.2,   -5.2,   -5.8,   -5.8,   -3.4,   -3.5,   -1.8,   -1.6,   -3.6,  999.0,  999.0,  999.0,  999.0,  999.0,  999.0,  999.0,  999.0,  999.0,  999.0,  999.0,  999.0,  999.0,  999.0,  999.0,  999.0,  999.0,  999.0,  999.0,  999.0,  999.0,  999.0,  999.0,  999.0,  999.0,  999.0,  999.0,  999.0
1999/09/01 23:00,  999.0,  999.0,    1.4,    0.0,   -0.0,    0.3,   -0.1,  999.0,   -0.7,   -0.6,   -0.2,   -0.5,   -1.6,   -2.1,   -2.6,   -1.2,   -0.8,   -0.4,    0.3,   -0.9,   -2.3,   -3.8,   -4.9,   -5.6,   -5.9,   -3.3,   -3.1,   -1.5,  999.0,  999.0,  999.0,  999.0,  999.0,  999.0,  999.0,  999.0,  999.0,  999.0,  999.0,  999.0,  999.0,  999.0,  999.0,  999.0,  999.0,  999.0,  999.0,  999.0,  999.0,  999.0,  999.0,  999.0,  999.0,  999.0,  999.0,  999.0,  999.0,  999.0
1999/09/01 23:10,  999.0,   -0.2,   -0.3,   -0.1,   -0.1,   -0.3,  999.0,   -1.4,   -0.9,   -0.9,   -0.6,   -0.8,   -1.4,   -1.4,   -1.6,   -2.0,   -2.7,   -1.6,   -0.7,   -1.0,   -1.0,   -1.9,   -3.2,   -4.4,  999.0,   -2.5,   -2.5,   -6.2,  999.0,  999.0,  999.0,  999.0,  999.0,  999.0,  999.0,  999.0,  999.0,  999.0,  999.0,  999.0,  999.0,  999.0,  999.0,  999.0,  999.0,  999.0,  999.0,  999.0,  999.0,  999.0,  999.0,  999.0,  999.0,  999.0,  999.0,  999.0,  999.0,  999.0
1999/09/01 23:20,  999.0,   -0.2,   -0.4,    0.4,    0.1,    0.1,   -0.7,   -1.4,   -0.5,   -0.7,   -0.5,   -1.1,   -1.1,   -1.9,   -2.8,   -3.0,   -3.0,   -2.3,   -1.6,   -1.8,   -2.4,   -2.9,   -4.1,   -5.0,  999.0,   -1.8,   -1.6,   -1.5,  999.0,  999.0,  999.0,  999.0,  999.0,  999.0,  999.0,  999.0,  999.0,  999.0,  999.0,  999.0,  999.0,  999.0,  999.0,  999.0,  999.0,  999.0,  999.0,  999.0,  999.0,  999.0,  999.0,  999.0,  999.0,  999.0,  999.0,  999.0,  999.0,  999.0
1999/09/01 23:30,  999.0,   -0.2,    1.5,   -0.9,   -0.5,   -0.1,   -0.6,   -1.2,   -0.9,   -0.5,   -0.6,   -0.4,   -0.0,   -0.1,   -2.4,   -3.2,   -2.6,   -1.6,   -1.5,   -2.0,   -2.3,   -2.8,   -3.7,   -3.9,  999.0,   -1.9,   -1.6,   -1.2,   -3.1,  999.0,  999.0,  999.0,  999.0,  999.0,  999.0,  999.0,  999.0,  999.0,  999.0,  999.0,  999.0,  999.0,  999.0,  999.0,  999.0,  999.0,  999.0,  999.0,  999.0,  999.0,  999.0,  999.0,  999.0,  999.0,  999.0,  999.0,  999.0,  -22.0
1999/09/01 23:40,  999.0,  999.0,   -0.8,   -0.2,   -0.8,   -0.3,   -1.5,   -1.5,   -0.5,   -1.4,   -1.2,   -2.0,   -1.6,   -1.7,   -1.7,   -1.4,   -1.5,   -1.3,   -2.8,   -3.8,   -4.0,   -2.6,   -3.2,   -3.1,  999.0,   -2.1,   -2.2,   -3.5,  999.0,  999.0,  999.0,  999.0,  999.0,  999.0,  999.0,  999.0,  999.0,  999.0,  999.0,  999.0,  999.0,  999.0,  999.0,  999.0,  999.0,  999.0,  999.0,  999.0,  999.0,  -20.1,  999.0,  999.0,  999.0,  999.0,  999.0,  999.0,  999.0,  999.0
1999/09/01 23:50,  999.0,   -1.2,   -1.3,   -0.4,   -1.0,   -1.0,   -1.2,   -1.3,   -1.6,   -1.6,   -1.5,   -1.5,   -1.2,   -1.5,   -1.8,   -2.2,   -1.4,   -0.8,    1.2,    0.5,   -0.3,   -1.6,  999.0,   -3.8,  999.0,   -4.7,   -5.3,   -6.2,  999.0,  999.0,  999.0,  999.0,  999.0,  -12.7,  999.0,  999.0,  999.0,  999.0,  999.0,  999.0,  999.0,  999.0,  999.0,  999.0,  999.0,  999.0,  999.0,  999.0,  999.0,  999.0,  999.0,  999.0,  999.0,  999.0,  999.0,  999.0,  999.0,  999.0
